Observation data for Happy on 04/23/2019      Previous  Date  Next       Current Mesonet Observations  Soil Data  Daily Summary Page  Observations in Plain Language
KHA2 230500Z 02013KT 11/10 A3009 RMK A01 T01090099  RH  094%=      5-min Rain = 0
KHA2 230501Z 02012KT 11/10 A3009 RMK A01 T01090099  RH  094%=      5-min Rain = 0
KHA2 230502Z 02012KT 11/10 A3009 RMK A01 T01090099  RH  093%=      5-min Rain = 0
KHA2 230503Z 03014KT 11/10 A3009 RMK A01 T01090099  RH  093%=      5-min Rain = 0
KHA2 230504Z 03013KT 11/10 A3009 RMK A01 T01090099  RH  093%=      5-min Rain = 0
KHA2 230505Z 03012KT 11/10 A3009 RMK A01 T01090099  RH  093%=      5-min Rain = 0
KHA2 230506Z 03013KT 11/10 A3009 RMK A01 T01090099  RH  093%=      5-min Rain = 0
KHA2 230507Z 03012KT 11/10 A301 RMK A01 T01090099  RH  093%=      5-min Rain = 0
KHA2 230508Z 03011KT 11/10 A301 RMK A01 T01090099  RH  093%=      5-min Rain = 0
KHA2 230509Z 03012KT 11/10 A301 RMK A01 T01090099  RH  093%=      5-min Rain = 0
KHA2 230510Z 03013KT 11/10 A301 RMK A01 T01090099  RH  094%=      5-min Rain = 0
KHA2 230511Z 03011KT 11/10 A301 RMK A01 T01090099  RH  094%=      5-min Rain = 0
KHA2 230512Z 03011KT 11/10 A301 RMK A01 T01090099  RH  094%=      5-min Rain = 0
KHA2 230513Z 03011KT 11/10 A301 RMK A01 T01090099  RH  094%=      5-min Rain = 0
KHA2 230514Z 03011KT 11/10 A301 RMK A01 T01090099  RH  094%=      5-min Rain = 0
KHA2 230515Z 03011KT 11/10 A3011 RMK A01 T01090099  RH  094%=      5-min Rain = 0
KHA2 230516Z 03011KT 11/10 A3011 RMK A01 T01090099  RH  094%=      5-min Rain = 0
KHA2 230517Z 03013KT 11/10 A3011 RMK A01 T01090099  RH  094%=      5-min Rain = 0
KHA2 230518Z 03010KT 11/10 A3011 RMK A01 T01090099  RH  094%=      5-min Rain = 0
KHA2 230519Z 04011KT 11/10 A301 RMK A01 T01090099  RH  094%=      5-min Rain = 0
KHA2 230520Z 04010KT 11/10 A301 RMK A01 T01090099  RH  094%=      5-min Rain = 0
KHA2 230521Z 04011KT 11/10 A301 RMK A01 T01090100  RH  094%=      5-min Rain = 0
KHA2 230522Z 03012KT 11/10 A301 RMK A01 T01090100  RH  094%=      5-min Rain = 0
KHA2 230523Z 03012KT 11/10 A301 RMK A01 T01080099  RH  094%=      5-min Rain = 0
KHA2 230524Z 03012KT 11/10 A301 RMK A01 T01080099  RH  094%=      5-min Rain = 0
KHA2 230525Z 03011KT 11/10 A301 RMK A01 T01080099  RH  094%=      5-min Rain = 0
KHA2 230526Z 04009KT 11/10 A3011 RMK A01 T01080099  RH  094%=      5-min Rain = 0
KHA2 230527Z 03009KT 11/10 A3011 RMK A01 T01080099  RH  094%=      5-min Rain = 0
KHA2 230528Z 03010KT 11/10 A3011 RMK A01 T01080099  RH  094%=      5-min Rain = 0
KHA2 230529Z 03011KT 11/10 A3011 RMK A01 T01080099  RH  094%=      5-min Rain = 0
KHA2 230530Z 03011KT 11/10 A3011 RMK A01 T01080099  RH  094%=      5-min Rain = 0
KHA2 230531Z 03010KT 11/10 A301 RMK A01 T01080099  RH  094%=      5-min Rain = 0
KHA2 230532Z 03010KT 11/10 A301 RMK A01 T01080099  RH  094%=      5-min Rain = 0
KHA2 230533Z 03011KT 11/10 A301 RMK A01 T01080100  RH  095%=      5-min Rain = 0
KHA2 230534Z 02010G15KT 11/10 A3011 RMK A01 T01080100  RH  095%=      5-min Rain = 0
KHA2 230535Z 03010KT 11/10 A3011 RMK A01 T01080099  RH  095%=      5-min Rain = 0
KHA2 230536Z 03009KT 11/10 A3011 RMK A01 T01080100  RH  095%=      5-min Rain = 0
KHA2 230537Z 03009KT 11/10 A3011 RMK A01 T01080100  RH  095%=      5-min Rain = 0
KHA2 230538Z 03009KT 11/10 A3011 RMK A01 T01080099  RH  095%=      5-min Rain = 0
KHA2 230539Z 04010KT 11/10 A3011 RMK A01 T01070099  RH  095%=      5-min Rain = 0
KHA2 230540Z 04010KT 11/10 A3011 RMK A01 T01070099  RH  095%=      5-min Rain = 0
KHA2 230541Z 04009KT 11/10 A3011 RMK A01 T01070099  RH  095%=      5-min Rain = 0
KHA2 230542Z 04008KT 11/10 A3011 RMK A01 T01070099  RH  095%=      5-min Rain = 0
KHA2 230543Z 05009KT 11/10 A3011 RMK A01 T01070099  RH  095%=      5-min Rain = 0
KHA2 230544Z 05009KT 11/10 A3011 RMK A01 T01070099  RH  095%=      5-min Rain = 0
KHA2 230545Z 05008KT 11/10 A3011 RMK A01 T01070099  RH  095%=      5-min Rain = 0
KHA2 230546Z 04009KT 11/10 A3011 RMK A01 T01070099  RH  095%=      5-min Rain = 0
KHA2 230547Z 04010KT 11/10 A3011 RMK A01 T01070099  RH  095%=      5-min Rain = 0
KHA2 230548Z 04010KT 11/10 A3011 RMK A01 T01070099  RH  095%=      5-min Rain = 0
KHA2 230549Z 04009KT 11/10 A3011 RMK A01 T01070099  RH  095%=      5-min Rain = 0
KHA2 230550Z 05010KT 11/10 A3011 RMK A01 T01070099  RH  095%=      5-min Rain = 0
KHA2 230551Z 05010KT 11/10 A3011 RMK A01 T01070099  RH  095%=      5-min Rain = 0
KHA2 230552Z 05009KT 11/10 A3011 RMK A01 T01070099  RH  095%=      5-min Rain = 0
KHA2 230553Z 05009KT 11/10 A3011 RMK A01 T01070099  RH  095%=      5-min Rain = 0
KHA2 230554Z 06009KT 11/10 A3011 RMK A01 T01070099  RH  095%=      5-min Rain = 0
KHA2 230555Z 05009KT 11/10 A3011 RMK A01 T01070099  RH  095%=      5-min Rain = 0
KHA2 230556Z 06009KT 11/10 A3011 RMK A01 T01060099  RH  095%=      5-min Rain = 0
KHA2 230557Z 05008KT 11/10 A3011 RMK A01 T01060099  RH  095%=      5-min Rain = 0
KHA2 230558Z 06009KT 11/10 A3011 RMK A01 T01060099  RH  095%=      5-min Rain = 0
KHA2 230559Z 06009KT 11/10 A3011 RMK A01 T01060099  RH  095%=      5-min Rain = 0
KHA2 230600Z 05008KT 11/10 A3011 RMK A01 T01060099  RH  095%=      5-min Rain = 0
KHA2 230601Z 05009KT 11/10 A3011 RMK A01 T01060100  RH  096%=      5-min Rain = 0
KHA2 230602Z 05009KT 11/10 A3011 RMK A01 T01060100  RH  096%=      5-min Rain = 0
KHA2 230603Z 04008KT 11/10 A3011 RMK A01 T01060100  RH  096%=      5-min Rain = 0
KHA2 230604Z 04009KT 11/10 A3011 RMK A01 T01060100  RH  096%=      5-min Rain = 0
KHA2 230605Z 04009KT 11/10 A3011 RMK A01 T01060100  RH  096%=      5-min Rain = 0
KHA2 230606Z 04008KT 11/10 A3011 RMK A01 T01060100  RH  096%=      5-min Rain = 0
KHA2 230607Z 04007KT 11/10 A3011 RMK A01 T01070100  RH  096%=      5-min Rain = 0
KHA2 230608Z 04009KT 11/10 A3011 RMK A01 T01070100  RH  096%=      5-min Rain = 0
KHA2 230609Z 03008KT 11/10 A3011 RMK A01 T01070100  RH  096%=      5-min Rain = 0
KHA2 230610Z 04008KT 11/10 A3011 RMK A01 T01070100  RH  095%=      5-min Rain = 0
KHA2 230611Z 03008KT 11/10 A3011 RMK A01 T01070100  RH  096%=      5-min Rain = 0
KHA2 230612Z 03008KT 11/10 A301 RMK A01 T01070100  RH  096%=      5-min Rain = 0
KHA2 230613Z 03009KT 11/10 A301 RMK A01 T01070100  RH  096%=      5-min Rain = 0
KHA2 230614Z 04009KT 11/10 A301 RMK A01 T01070100  RH  096%=      5-min Rain = 0
KHA2 230615Z 03010KT 11/10 A301 RMK A01 T01070101  RH  096%=      5-min Rain = 0
KHA2 230616Z 03010KT 11/10 A301 RMK A01 T01080101  RH  096%=      5-min Rain = 0
KHA2 230617Z 03009KT 11/10 A301 RMK A01 T01080101  RH  096%=      5-min Rain = 0
KHA2 230618Z 03010KT 11/10 A301 RMK A01 T01080101  RH  095%=      5-min Rain = 0
KHA2 230619Z 04011KT 11/10 A301 RMK A01 T01080101  RH  095%=      5-min Rain = 0
KHA2 230620Z 04010KT 11/10 A301 RMK A01 T01090101  RH  095%=      5-min Rain = 0
KHA2 230621Z 03010KT 11/10 A301 RMK A01 T01090101  RH  095%=      5-min Rain = 0
KHA2 230622Z 04011KT 11/10 A301 RMK A01 T01090101  RH  095%=      5-min Rain = 0
KHA2 230623Z 03010KT 11/10 A301 RMK A01 T01090101  RH  095%=      5-min Rain = 0
KHA2 230624Z 04010G15KT 11/10 A301 RMK A01 T01090101  RH  095%=      5-min Rain = 0
KHA2 230625Z 03014KT 11/10 A301 RMK A01 T01090101  RH  095%=      5-min Rain = 0
KHA2 230626Z 04012KT 11/10 A301 RMK A01 T01090101  RH  094%=      5-min Rain = 0
KHA2 230627Z 03010KT 11/10 A3011 RMK A01 T01100101  RH  094%=      5-min Rain = 0
KHA2 230628Z 04010KT 11/10 A3011 RMK A01 T01100101  RH  094%=      5-min Rain = 0
KHA2 230629Z 04011KT 11/10 A3011 RMK A01 T01100101  RH  094%=      5-min Rain = 0
KHA2 230630Z 04011KT 11/10 A301 RMK A01 T01100101  RH  094%=      5-min Rain = 0
KHA2 230631Z 03011KT 11/10 A301 RMK A01 T01100101  RH  094%=      5-min Rain = 0
KHA2 230632Z 04010KT 11/10 A301 RMK A01 T01100101  RH  094%=      5-min Rain = 0
KHA2 230633Z 04011KT 11/10 A301 RMK A01 T01100101  RH  094%=      5-min Rain = 0
KHA2 230634Z 03011KT 11/10 A301 RMK A01 T01100101  RH  094%=      5-min Rain = 0
KHA2 230635Z 04012KT 11/10 A301 RMK A01 T01100101  RH  094%=      5-min Rain = 0
KHA2 230636Z 03013KT 11/10 A301 RMK A01 T01100101  RH  094%=      5-min Rain = 0
KHA2 230637Z 03011KT 11/10 A301 RMK A01 T01090100  RH  094%=      5-min Rain = 0
KHA2 230638Z 03012KT 11/10 A301 RMK A01 T01100100  RH  094%=      5-min Rain = 0
KHA2 230639Z 03013KT 11/10 A301 RMK A01 T01100101  RH  094%=      5-min Rain = 0
KHA2 230640Z 03013KT 11/10 A301 RMK A01 T01100101  RH  094%=      5-min Rain = 0
KHA2 230641Z 03011KT 11/10 A301 RMK A01 T01100101  RH  094%=      5-min Rain = 0
KHA2 230642Z 03011KT 11/10 A3009 RMK A01 T01090100  RH  094%=      5-min Rain = 0
KHA2 230643Z 03012KT 11/10 A3009 RMK A01 T01090100  RH  094%=      5-min Rain = 0
KHA2 230644Z 02010KT 11/10 A3009 RMK A01 T01090100  RH  094%=      5-min Rain = 0
KHA2 230645Z 02010KT 11/10 A3009 RMK A01 T01090100  RH  095%=      5-min Rain = 0
KHA2 230646Z 02010KT 11/10 A301 RMK A01 T01090100  RH  095%=      5-min Rain = 0
KHA2 230647Z 02010KT 11/10 A301 RMK A01 T01090100  RH  095%=      5-min Rain = 0
KHA2 230648Z 02010KT 11/10 A301 RMK A01 T01080100  RH  095%=      5-min Rain = 0
KHA2 230649Z 02009KT 11/10 A301 RMK A01 T01080100  RH  095%=      5-min Rain = 0
KHA2 230650Z 02008KT 11/10 A301 RMK A01 T01080101  RH  095%=      5-min Rain = 0
KHA2 230651Z 02008KT 11/10 A3009 RMK A01 T01080101  RH  095%=      5-min Rain = 0
KHA2 230652Z 03008KT 11/10 A3009 RMK A01 T01080101  RH  095%=      5-min Rain = 0
KHA2 230653Z 02008KT 11/10 A3009 RMK A01 T01080101  RH  095%=      5-min Rain = 0
KHA2 230654Z 02009KT 11/10 A3009 RMK A01 T01080101  RH  095%=      5-min Rain = 0
KHA2 230655Z 02009KT 11/10 A3009 RMK A01 T01080101  RH  096%=      5-min Rain = 0
KHA2 230656Z 03008KT 11/10 A3009 RMK A01 T01080101  RH  096%=      5-min Rain = 0
KHA2 230657Z 02009KT 11/10 A3009 RMK A01 T01080101  RH  096%=      5-min Rain = 0
KHA2 230658Z 02008KT 11/10 A301 RMK A01 T01070100  RH  096%=      5-min Rain = 0
KHA2 230659Z 02008KT 11/10 A301 RMK A01 T01070100  RH  096%=      5-min Rain = 0
KHA2 230700Z 02009KT 11/10 A301 RMK A01 T01070101  RH  096%=      5-min Rain = 0
KHA2 230701Z 02009KT 11/10 A301 RMK A01 T01070101  RH  095%=      5-min Rain = 0
KHA2 230702Z 02008KT 11/10 A301 RMK A01 T01080101  RH  095%=      5-min Rain = 0
KHA2 230703Z 02009KT 11/10 A301 RMK A01 T01080101  RH  095%=      5-min Rain = 0
KHA2 230704Z 02008KT 11/10 A301 RMK A01 T01080101  RH  095%=      5-min Rain = 0
KHA2 230705Z 02009KT 11/10 A301 RMK A01 T01080100  RH  095%=      5-min Rain = 0
KHA2 230706Z 03009KT 11/10 A301 RMK A01 T01080100  RH  095%=      5-min Rain = 0
KHA2 230707Z 02009KT 11/10 A301 RMK A01 T01080100  RH  095%=      5-min Rain = 0
KHA2 230708Z 03008KT 11/10 A301 RMK A01 T01080100  RH  095%=      5-min Rain = 0
KHA2 230709Z 02009KT 11/10 A301 RMK A01 T01080100  RH  095%=      5-min Rain = 0
KHA2 230710Z 03008KT 11/10 A301 RMK A01 T01080100  RH  095%=      5-min Rain = 0
KHA2 230711Z 02009KT 11/10 A301 RMK A01 T01080100  RH  095%=      5-min Rain = 0
KHA2 230712Z 03010KT 11/10 A301 RMK A01 T01080100  RH  095%=      5-min Rain = 0
KHA2 230713Z 03010KT 11/10 A301 RMK A01 T01080100  RH  095%=      5-min Rain = 0
KHA2 230714Z 03009KT 11/10 A301 RMK A01 T01080100  RH  095%=      5-min Rain = 0
KHA2 230715Z 03009KT 11/10 A301 RMK A01 T01080101  RH  095%=      5-min Rain = 0
KHA2 230716Z 03008KT 11/10 A301 RMK A01 T01080100  RH  095%=      5-min Rain = 0
KHA2 230717Z 03009KT 11/10 A301 RMK A01 T01080101  RH  095%=      5-min Rain = 0
KHA2 230718Z 03008KT 11/10 A301 RMK A01 T01080101  RH  095%=      5-min Rain = 0
KHA2 230719Z 03009KT 11/10 A301 RMK A01 T01080101  RH  095%=      5-min Rain = 0
KHA2 230720Z 03008KT 11/10 A301 RMK A01 T01080101  RH  095%=      5-min Rain = 0
KHA2 230721Z 03008KT 11/10 A3009 RMK A01 T01080101  RH  095%=      5-min Rain = 0
KHA2 230722Z 03009KT 11/10 A3009 RMK A01 T01080101  RH  095%=      5-min Rain = 0
KHA2 230723Z 02008KT 11/10 A3009 RMK A01 T01080100  RH  095%=      5-min Rain = 0
KHA2 230724Z 02008KT 11/10 A3009 RMK A01 T01080101  RH  095%=      5-min Rain = 0
KHA2 230725Z 02008KT 11/10 A3009 RMK A01 T01080100  RH  095%=      5-min Rain = 0
KHA2 230726Z 02008KT 11/10 A3009 RMK A01 T01080101  RH  095%=      5-min Rain = 0
KHA2 230727Z 02008KT 11/10 A3009 RMK A01 T01080101  RH  095%=      5-min Rain = 0
KHA2 230728Z 02008KT 11/10 A3009 RMK A01 T01080101  RH  095%=      5-min Rain = 0
KHA2 230729Z 02008KT 11/10 A3009 RMK A01 T01080101  RH  095%=      5-min Rain = 0
KHA2 230730Z 02009KT 11/10 A3009 RMK A01 T01080101  RH  095%=      5-min Rain = 0
KHA2 230731Z 02010KT 11/10 A3009 RMK A01 T01080101  RH  095%=      5-min Rain = 0
KHA2 230732Z 02009KT 11/10 A3009 RMK A01 T01090101  RH  095%=      5-min Rain = 0
KHA2 230733Z 02009KT 11/10 A3009 RMK A01 T01090101  RH  095%=      5-min Rain = 0
KHA2 230734Z 02008KT 11/10 A3009 RMK A01 T01090101  RH  095%=      5-min Rain = 0
KHA2 230735Z 01008KT 11/10 A3009 RMK A01 T01090101  RH  095%=      5-min Rain = 0
KHA2 230736Z 02008KT 11/10 A3009 RMK A01 T01090101  RH  095%=      5-min Rain = 0
KHA2 230737Z 01009KT 11/10 A3009 RMK A01 T01090101  RH  095%=      5-min Rain = 0
KHA2 230738Z 01009KT 11/10 A3009 RMK A01 T01090101  RH  095%=      5-min Rain = 0
KHA2 230739Z 01010KT 11/10 A3009 RMK A01 T01090101  RH  095%=      5-min Rain = 0
KHA2 230740Z 01010KT 11/10 A3009 RMK A01 T01090101  RH  095%=      5-min Rain = 0
KHA2 230741Z 01010KT 11/10 A3009 RMK A01 T01090101  RH  095%=      5-min Rain = 0
KHA2 230742Z 01010KT 11/10 A3009 RMK A01 T01090101  RH  095%=      5-min Rain = 0
KHA2 230743Z 01010KT 11/10 A3009 RMK A01 T01090101  RH  095%=      5-min Rain = 0
KHA2 230744Z 01010KT 11/10 A3009 RMK A01 T01090101  RH  095%=      5-min Rain = 0
KHA2 230745Z 01009KT 11/10 A3009 RMK A01 T01090101  RH  095%=      5-min Rain = 0
KHA2 230746Z 01008KT 11/10 A3009 RMK A01 T01090101  RH  095%=      5-min Rain = 0
KHA2 230747Z 01010KT 11/10 A3009 RMK A01 T01090101  RH  095%=      5-min Rain = 0
KHA2 230748Z 01009KT 11/10 A3009 RMK A01 T01090101  RH  095%=      5-min Rain = 0
KHA2 230749Z 01009KT 11/10 A3009 RMK A01 T01090101  RH  095%=      5-min Rain = 0
KHA2 230750Z 01009KT 11/10 A3009 RMK A01 T01090101  RH  095%=      5-min Rain = 0
KHA2 230751Z 00008KT 11/10 A3009 RMK A01 T01090101  RH  095%=      5-min Rain = 0
KHA2 230752Z 01009KT 11/10 A3009 RMK A01 T01090101  RH  095%=      5-min Rain = 0
KHA2 230753Z 01010KT 11/10 A3009 RMK A01 T01090101  RH  095%=      5-min Rain = 0
KHA2 230754Z 01009KT 11/10 A3009 RMK A01 T01090101  RH  095%=      5-min Rain = 0
KHA2 230755Z 01009KT 11/10 A3008 RMK A01 T01090101  RH  095%=      5-min Rain = 0
KHA2 230756Z 01009KT 11/10 A3008 RMK A01 T01090101  RH  095%=      5-min Rain = 0
KHA2 230757Z 01009KT 11/10 A3008 RMK A01 T01090101  RH  095%=      5-min Rain = 0
KHA2 230758Z 01009KT 11/10 A3008 RMK A01 T01090101  RH  095%=      5-min Rain = 0
KHA2 230759Z 02009KT 11/10 A3008 RMK A01 T01090102  RH  095%=      5-min Rain = 0
KHA2 230800Z 03011KT 11/10 A3008 RMK A01 T01090102  RH  095%=      5-min Rain = 0
KHA2 230801Z 03011KT 11/10 A3008 RMK A01 T01090102  RH  095%=      5-min Rain = 0
KHA2 230802Z 03010KT 11/10 A3008 RMK A01 T01090102  RH  095%=      5-min Rain = 0
KHA2 230803Z 03011KT 11/10 A3007 RMK A01 T01090102  RH  095%=      5-min Rain = 0
KHA2 230804Z 04010KT 11/10 A3007 RMK A01 T01090102  RH  095%=      5-min Rain = 0
KHA2 230805Z 04011KT 11/10 A3007 RMK A01 T01090102  RH  096%=      5-min Rain = 0
KHA2 230806Z 04012KT 11/10 A3007 RMK A01 T01090102  RH  096%=      5-min Rain = 0
KHA2 230807Z 04012KT 11/10 A3007 RMK A01 T01090102  RH  095%=      5-min Rain = 0
KHA2 230808Z 04010KT 11/10 A3007 RMK A01 T01090102  RH  095%=      5-min Rain = 0
KHA2 230809Z 04010KT 11/10 A3007 RMK A01 T01090102  RH  095%=      5-min Rain = 0
KHA2 230810Z 04011KT 11/10 A3007 RMK A01 T01090102  RH  096%=      5-min Rain = 0
KHA2 230811Z 04011KT 11/10 A3007 RMK A01 T01090102  RH  096%=      5-min Rain = 0
KHA2 230812Z 04011KT 11/10 A3007 RMK A01 T01090103  RH  096%=      5-min Rain = 0
KHA2 230813Z 04011KT 11/10 A3007 RMK A01 T01090103  RH  096%=      5-min Rain = 0
KHA2 230814Z 04012KT 11/10 A3007 RMK A01 T01090103  RH  096%=      5-min Rain = 0
KHA2 230815Z 05011KT 11/10 A3007 RMK A01 T01090103  RH  096%=      5-min Rain = 0
KHA2 230816Z 04011KT 11/10 A3007 RMK A01 T01090103  RH  096%=      5-min Rain = 0
KHA2 230817Z 04012KT 11/10 A3007 RMK A01 T01090103  RH  096%=      5-min Rain = 0
KHA2 230818Z 05013KT 11/10 A3007 RMK A01 T01090103  RH  096%=      5-min Rain = 0
KHA2 230819Z 05012KT 11/10 A3007 RMK A01 T01090103  RH  096%=      5-min Rain = 0
KHA2 230820Z 05013KT 11/10 A3007 RMK A01 T01090103  RH  096%=      5-min Rain = 0
KHA2 230821Z 04012KT 11/10 A3007 RMK A01 T01090103  RH  096%=      5-min Rain = 0
KHA2 230822Z 04011KT 11/10 A3007 RMK A01 T01090103  RH  096%=      5-min Rain = 0
KHA2 230823Z 04012KT 11/10 A3007 RMK A01 T01090103  RH  096%=      5-min Rain = 0
KHA2 230824Z 04011KT 11/10 A3007 RMK A01 T01090103  RH  096%=      5-min Rain = 0
KHA2 230825Z 04011KT 11/10 A3007 RMK A01 T01090103  RH  096%=      5-min Rain = 0
KHA2 230826Z 04010KT 11/10 A3007 RMK A01 T01090103  RH  096%=      5-min Rain = 0
KHA2 230827Z 04010KT 11/10 A3007 RMK A01 T01090103  RH  096%=      5-min Rain = 0
KHA2 230828Z 04011KT 11/10 A3007 RMK A01 T01090103  RH  096%=      5-min Rain = 0
KHA2 230829Z 03010KT 11/10 A3007 RMK A01 T01090103  RH  096%=      5-min Rain = 0
KHA2 230830Z 04011KT 11/10 A3007 RMK A01 T01090103  RH  096%=      5-min Rain = 0
KHA2 230831Z 03010KT 11/10 A3007 RMK A01 T01090103  RH  096%=      5-min Rain = 0
KHA2 230832Z 03012KT 11/10 A3007 RMK A01 T01090103  RH  096%=      5-min Rain = 0.01
KHA2 230833Z 03011KT 11/10 A3007 RMK A01 T01100103  RH  096%=      5-min Rain = 0
KHA2 230834Z 03010KT 11/10 A3007 RMK A01 T01100103  RH  096%=      5-min Rain = 0
KHA2 230835Z 03011KT 11/10 A3007 RMK A01 T01090103  RH  096%=      5-min Rain = 0
KHA2 230836Z 03012KT 11/10 A3007 RMK A01 T01100103  RH  096%=      5-min Rain = 0
KHA2 230837Z 03009KT 11/10 A3007 RMK A01 T01100103  RH  095%=      5-min Rain = 0
KHA2 230838Z 03012KT 11/10 A3007 RMK A01 T01100103  RH  095%=      5-min Rain = 0
KHA2 230839Z 03010KT 11/10 A3007 RMK A01 T01100103  RH  095%=      5-min Rain = 0
KHA2 230840Z 03009KT 11/10 A3008 RMK A01 T01100103  RH  095%=      5-min Rain = 0
KHA2 230841Z 02009KT 11/10 A3008 RMK A01 T01100103  RH  096%=      5-min Rain = 0
KHA2 230842Z 02008KT 11/10 A3008 RMK A01 T01100103  RH  096%=      5-min Rain = 0
KHA2 230843Z 01007KT 11/10 A3008 RMK A01 T01100103  RH  096%=      5-min Rain = 0
KHA2 230844Z 02008KT 11/10 A3008 RMK A01 T01100103  RH  096%=      5-min Rain = 0
KHA2 230845Z 02010KT 11/10 A3008 RMK A01 T01100104  RH  096%=      5-min Rain = 0
KHA2 230846Z 01009KT 11/10 A3007 RMK A01 T01100104  RH  096%=      5-min Rain = 0
KHA2 230847Z 02008KT 11/10 A3007 RMK A01 T01100104  RH  096%=      5-min Rain = 0
KHA2 230848Z 02010KT 11/10 A3007 RMK A01 T01100103  RH  096%=      5-min Rain = 0
KHA2 230849Z 01011KT 11/10 A3007 RMK A01 T01100103  RH  096%=      5-min Rain = 0
KHA2 230850Z 01009KT 11/10 A3007 RMK A01 T01100103  RH  096%=      5-min Rain = 0
KHA2 230851Z 02010KT 11/10 A3007 RMK A01 T01100103  RH  096%=      5-min Rain = 0
KHA2 230852Z 01009KT 11/10 A3007 RMK A01 T01100103  RH  096%=      5-min Rain = 0
KHA2 230853Z 02011KT 11/10 A3007 RMK A01 T01100103  RH  096%=      5-min Rain = 0
KHA2 230854Z 01009KT 11/10 A3007 RMK A01 T01100103  RH  096%=      5-min Rain = 0
KHA2 230855Z 02011KT 11/10 A3007 RMK A01 T01100103  RH  096%=      5-min Rain = 0
KHA2 230856Z 01011KT 11/10 A3007 RMK A01 T01100103  RH  096%=      5-min Rain = 0
KHA2 230857Z 01010KT 11/10 A3007 RMK A01 T01100103  RH  095%=      5-min Rain = 0
KHA2 230858Z 02010KT 11/10 A3007 RMK A01 T01100103  RH  095%=      5-min Rain = 0
KHA2 230859Z 02010KT 11/10 A3007 RMK A01 T01100103  RH  095%=      5-min Rain = 0
KHA2 230900Z 02010KT 11/10 A3007 RMK A01 T01100103  RH  096%=      5-min Rain = 0
KHA2 230901Z 02010KT 11/10 A3007 RMK A01 T01100103  RH  096%=      5-min Rain = 0
KHA2 230902Z 02011KT 11/10 A3006 RMK A01 T01100103  RH  096%=      5-min Rain = 0
KHA2 230903Z 02008KT 11/10 A3007 RMK A01 T01100103  RH  096%=      5-min Rain = 0
KHA2 230904Z 01010KT 11/10 A3007 RMK A01 T01100103  RH  096%=      5-min Rain = 0
KHA2 230905Z 02010KT 11/10 A3007 RMK A01 T01100103  RH  096%=      5-min Rain = 0
KHA2 230906Z 01010KT 11/10 A3007 RMK A01 T01100103  RH  096%=      5-min Rain = 0
KHA2 230907Z 02009KT 11/10 A3007 RMK A01 T01100103  RH  096%=      5-min Rain = 0
KHA2 230908Z 01008KT 11/10 A3007 RMK A01 T01100103  RH  096%=      5-min Rain = 0
KHA2 230909Z 01008KT 11/10 A3007 RMK A01 T01100104  RH  096%=      5-min Rain = 0.01
KHA2 230910Z 01010KT 11/10 A3007 RMK A01 T01100104  RH  096%=      5-min Rain = 0
KHA2 230911Z 01009KT 11/10 A3007 RMK A01 T01100104  RH  096%=      5-min Rain = 0
KHA2 230912Z 01008KT 11/10 A3007 RMK A01 T01100104  RH  096%=      5-min Rain = 0
KHA2 230913Z 01007KT 11/10 A3007 RMK A01 T01090104  RH  096%=      5-min Rain = 0
KHA2 230914Z 01007KT 11/10 A3007 RMK A01 T01090104  RH  096%=      5-min Rain = 0
KHA2 230915Z 01006KT 11/10 A3007 RMK A01 T01100104  RH  096%=      5-min Rain = 0
KHA2 230916Z 01007KT 11/11 A3007 RMK A01 T01100105  RH  097%=      5-min Rain = 0.01
KHA2 230917Z 00006KT 11/10 A3007 RMK A01 T01100104  RH  097%=      5-min Rain = 0
KHA2 230918Z 01007KT 11/10 A3007 RMK A01 T01090104  RH  097%=      5-min Rain = 0
KHA2 230919Z 36008KT 11/10 A3007 RMK A01 T01090104  RH  097%=      5-min Rain = 0
KHA2 230920Z 00007KT 11/10 A3007 RMK A01 T01090104  RH  097%=      5-min Rain = 0.01
KHA2 230921Z 36008KT 11/10 A3007 RMK A01 T01090104  RH  097%=      5-min Rain = 0
KHA2 230922Z 01008KT 11/10 A3007 RMK A01 T01090104  RH  097%=      5-min Rain = 0
KHA2 230923Z 00008KT 11/10 A3007 RMK A01 T01090104  RH  097%=      5-min Rain = 0
KHA2 230924Z 36008KT 11/10 A3007 RMK A01 T01090104  RH  097%=      5-min Rain = 0.01
KHA2 230925Z 00008KT 11/10 A3007 RMK A01 T01080104  RH  097%=      5-min Rain = 0
KHA2 230926Z 00008KT 11/10 A3007 RMK A01 T01080104  RH  097%=      5-min Rain = 0.01
KHA2 230927Z 00007KT 11/10 A3007 RMK A01 T01080104  RH  097%=      5-min Rain = 0
KHA2 230928Z 00007KT 11/10 A3007 RMK A01 T01080104  RH  097%=      5-min Rain = 0.01
KHA2 230929Z 00007KT 11/10 A3007 RMK A01 T01080104  RH  097%=      5-min Rain = 0
KHA2 230930Z 00006KT 11/10 A3008 RMK A01 T01080104  RH  097%=      5-min Rain = 0.01
KHA2 230931Z 00007KT 11/10 A3008 RMK A01 T01080104  RH  097%=      5-min Rain = 0
KHA2 230932Z 01006KT 11/10 A3008 RMK A01 T01080104  RH  097%=      5-min Rain = 0.01
KHA2 230933Z 00006KT 11/10 A3008 RMK A01 T01080104  RH  097%=      5-min Rain = 0.01
KHA2 230934Z 00006KT 11/10 A3008 RMK A01 T01080104  RH  097%=      5-min Rain = 0
KHA2 230935Z 01005KT 11/10 A3008 RMK A01 T01080104  RH  097%=      5-min Rain = 0.01
KHA2 230936Z 01006KT 11/10 A3008 RMK A01 T01080104  RH  097%=      5-min Rain = 0.01
KHA2 230937Z 01007KT 11/10 A3008 RMK A01 T01080104  RH  098%=      5-min Rain = 0.01
KHA2 230938Z 00006KT 11/10 A3008 RMK A01 T01080104  RH  098%=      5-min Rain = 0
KHA2 230939Z 36006KT 11/11 A3008 RMK A01 T01080105  RH  098%=      5-min Rain = 0.01
KHA2 230940Z 35006KT 11/10 A3008 RMK A01 T01080104  RH  098%=      5-min Rain = 0.01
KHA2 230941Z 35006KT 11/10 A3008 RMK A01 T01080104  RH  098%=      5-min Rain = 0
KHA2 230942Z 35006KT 11/10 A3008 RMK A01 T01080104  RH  098%=      5-min Rain = 0.01
KHA2 230943Z 35006KT 11/10 A3008 RMK A01 T01070104  RH  098%=      5-min Rain = 0
KHA2 230944Z 34007KT 11/10 A3008 RMK A01 T01070104  RH  098%=      5-min Rain = 0.01
KHA2 230945Z 34007KT 11/10 A3008 RMK A01 T01070104  RH  098%=      5-min Rain = 0.01
KHA2 230946Z 34007KT 11/10 A3008 RMK A01 T01070104  RH  098%=      5-min Rain = 0
KHA2 230947Z 34008KT 11/10 A3008 RMK A01 T01070104  RH  098%=      5-min Rain = 0.01
KHA2 230948Z 35008KT 11/11 A3009 RMK A01 T01070105  RH  098%=      5-min Rain = 0.01
KHA2 230949Z 35007KT 11/11 A3009 RMK A01 T01070105  RH  098%=      5-min Rain = 0.01
KHA2 230950Z 35008KT 11/11 A3009 RMK A01 T01070105  RH  098%=      5-min Rain = 0.01
KHA2 230951Z 34008KT 11/10 A3009 RMK A01 T01070104  RH  098%=      5-min Rain = 0.01
KHA2 230952Z 34007KT 11/10 A3009 RMK A01 T01070104  RH  098%=      5-min Rain = 0
KHA2 230953Z 35007KT 11/10 A3009 RMK A01 T01070104  RH  098%=      5-min Rain = 0.01
KHA2 230954Z 35008KT 11/10 A3009 RMK A01 T01070104  RH  098%=      5-min Rain = 0
KHA2 230955Z 35008KT 11/10 A3009 RMK A01 T01070104  RH  098%=      5-min Rain = 0.01
KHA2 230956Z 35008KT 11/10 A3008 RMK A01 T01070104  RH  098%=      5-min Rain = 0.01
KHA2 230957Z 35009KT 11/10 A3008 RMK A01 T01070104  RH  098%=      5-min Rain = 0.01
KHA2 230958Z 36009KT 11/10 A3008 RMK A01 T01070104  RH  098%=      5-min Rain = 0
KHA2 230959Z 36009KT 11/10 A3008 RMK A01 T01070104  RH  098%=      5-min Rain = 0.01
KHA2 231000Z 00009KT 11/10 A3008 RMK A01 T01070104  RH  098%=      5-min Rain = 0
KHA2 231001Z 00009KT 11/10 A3008 RMK A01 T01070104  RH  098%=      5-min Rain = 0.01
KHA2 231002Z 01009KT 11/10 A3008 RMK A01 T01060104  RH  098%=      5-min Rain = 0
KHA2 231003Z 01009KT 11/10 A3008 RMK A01 T01060104  RH  098%=      5-min Rain = 0.01
KHA2 231004Z 01010KT 11/10 A3007 RMK A01 T01060104  RH  098%=      5-min Rain = 0
KHA2 231005Z 01009KT 11/10 A3007 RMK A01 T01060104  RH  098%=      5-min Rain = 0.01
KHA2 231006Z 01011KT 11/10 A3007 RMK A01 T01060104  RH  098%=      5-min Rain = 0
KHA2 231007Z 01011KT 11/10 A3007 RMK A01 T01060104  RH  098%=      5-min Rain = 0.01
KHA2 231008Z 00010KT 11/10 A3007 RMK A01 T01070104  RH  098%=      5-min Rain = 0
KHA2 231009Z 00010KT 11/10 A3007 RMK A01 T01070104  RH  098%=      5-min Rain = 0.01
KHA2 231010Z 36011KT 11/10 A3007 RMK A01 T01060104  RH  098%=      5-min Rain = 0
KHA2 231011Z 00010KT 11/10 A3007 RMK A01 T01060104  RH  098%=      5-min Rain = 0.01
KHA2 231012Z 35008KT 11/10 A3007 RMK A01 T01070104  RH  099%=      5-min Rain = 0
KHA2 231013Z 35008KT 11/10 A3007 RMK A01 T01060104  RH  099%=      5-min Rain = 0
KHA2 231014Z 00008KT 11/10 A3008 RMK A01 T01060104  RH  099%=      5-min Rain = 0.01
KHA2 231015Z 01010KT 11/10 A3008 RMK A01 T01060104  RH  099%=      5-min Rain = 0
KHA2 231016Z 01012KT 11/11 A3007 RMK A01 T01070105  RH  099%=      5-min Rain = 0
KHA2 231017Z 01011KT 11/10 A3007 RMK A01 T01060104  RH  099%=      5-min Rain = 0.01
KHA2 231018Z 01010KT 11/11 A3007 RMK A01 T01070105  RH  099%=      5-min Rain = 0
KHA2 231019Z 01012KT 11/11 A3007 RMK A01 T01070105  RH  099%=      5-min Rain = 0
KHA2 231020Z 01012KT 11/10 A3007 RMK A01 T01070104  RH  099%=      5-min Rain = 0
KHA2 231021Z 01013KT 11/11 A3007 RMK A01 T01070105  RH  098%=      5-min Rain = 0.01
KHA2 231022Z 01014KT 11/10 A3007 RMK A01 T01070104  RH  098%=      5-min Rain = 0
KHA2 231023Z 01012KT 11/11 A3007 RMK A01 T01070105  RH  098%=      5-min Rain = 0
KHA2 231024Z 01011KT 11/11 A3007 RMK A01 T01070105  RH  098%=      5-min Rain = 0
KHA2 231025Z 01011KT 11/11 A3007 RMK A01 T01070105  RH  098%=      5-min Rain = 0.01
KHA2 231026Z 01012KT 11/11 A3007 RMK A01 T01070105  RH  098%=      5-min Rain = 0
KHA2 231027Z 01014KT 11/11 A3006 RMK A01 T01070105  RH  098%=      5-min Rain = 0.01
KHA2 231028Z 01013KT 11/11 A3006 RMK A01 T01070105  RH  098%=      5-min Rain = 0
KHA2 231029Z 01013KT 11/10 A3006 RMK A01 T01070104  RH  098%=      5-min Rain = 0
KHA2 231030Z 01013KT 11/11 A3006 RMK A01 T01070105  RH  098%=      5-min Rain = 0.01
KHA2 231031Z 01014KT 11/11 A3006 RMK A01 T01070105  RH  098%=      5-min Rain = 0
KHA2 231032Z 01013KT 11/11 A3006 RMK A01 T01070105  RH  098%=      5-min Rain = 0
KHA2 231033Z 01011KT 11/10 A3007 RMK A01 T01070104  RH  098%=      5-min Rain = 0.01
KHA2 231034Z 01012KT 11/10 A3007 RMK A01 T01060104  RH  098%=      5-min Rain = 0
KHA2 231035Z 01012KT 11/10 A3007 RMK A01 T01060104  RH  098%=      5-min Rain = 0.01
KHA2 231036Z 00010KT 11/10 A3007 RMK A01 T01070104  RH  098%=      5-min Rain = 0
KHA2 231037Z 36011KT 11/10 A3007 RMK A01 T01060104  RH  098%=      5-min Rain = 0
KHA2 231038Z 36011KT 11/10 A3007 RMK A01 T01060104  RH  099%=      5-min Rain = 0.01
KHA2 231039Z 00010KT 11/10 A3007 RMK A01 T01060104  RH  099%=      5-min Rain = 0
KHA2 231040Z 35011KT 11/10 A3007 RMK A01 T01070104  RH  099%=      5-min Rain = 0
KHA2 231041Z 36011KT 11/10 A3007 RMK A01 T01060104  RH  099%=      5-min Rain = 0.01
KHA2 231042Z 35011KT 11/10 A3007 RMK A01 T01060104  RH  099%=      5-min Rain = 0
KHA2 231043Z 35011KT 11/10 A3007 RMK A01 T01060104  RH  099%=      5-min Rain = 0
KHA2 231044Z 35010KT 11/10 A3007 RMK A01 T01070104  RH  099%=      5-min Rain = 0
KHA2 231045Z 35011KT 11/11 A3007 RMK A01 T01070105  RH  099%=      5-min Rain = 0.01
KHA2 231046Z 35011KT 11/10 A3007 RMK A01 T01060104  RH  099%=      5-min Rain = 0
KHA2 231047Z 35010KT 11/10 A3007 RMK A01 T01060104  RH  099%=      5-min Rain = 0
KHA2 231048Z 34010KT 11/11 A3007 RMK A01 T01070105  RH  099%=      5-min Rain = 0
KHA2 231049Z 34010KT 11/11 A3007 RMK A01 T01070105  RH  099%=      5-min Rain = 0
KHA2 231050Z 34010KT 11/11 A3007 RMK A01 T01070105  RH  099%=      5-min Rain = 0
KHA2 231051Z 35010KT 11/11 A3007 RMK A01 T01070105  RH  099%=      5-min Rain = 0.01
KHA2 231052Z 34010KT 11/11 A3007 RMK A01 T01070105  RH  099%=      5-min Rain = 0
KHA2 231053Z 35009KT 11/11 A3007 RMK A01 T01070105  RH  099%=      5-min Rain = 0
KHA2 231054Z 34011KT 11/11 A3008 RMK A01 T01070106  RH  099%=      5-min Rain = 0
KHA2 231055Z 34011KT 11/11 A3008 RMK A01 T01070106  RH  099%=      5-min Rain = 0
KHA2 231056Z 34011KT 11/11 A3008 RMK A01 T01070105  RH  099%=      5-min Rain = 0
KHA2 231057Z 34010KT 11/11 A3008 RMK A01 T01080106  RH  099%=      5-min Rain = 0
KHA2 231058Z 34010KT 11/11 A3008 RMK A01 T01080106  RH  099%=      5-min Rain = 0
KHA2 231059Z 34010KT 11/11 A3008 RMK A01 T01080106  RH  099%=      5-min Rain = 0
KHA2 231100Z 34010KT 11/11 A3008 RMK A01 T01080106  RH  099%=      5-min Rain = 0
KHA2 231101Z 34010KT 11/11 A3008 RMK A01 T01080107  RH  099%=      5-min Rain = 0
KHA2 231102Z 34010KT 11/11 A3008 RMK A01 T01080106  RH  099%=      5-min Rain = 0
KHA2 231103Z 34010KT 11/11 A3008 RMK A01 T01080107  RH  099%=      5-min Rain = 0
KHA2 231104Z 34010KT 11/11 A3008 RMK A01 T01080106  RH  099%=      5-min Rain = 0
KHA2 231105Z 34011KT 11/11 A3008 RMK A01 T01080106  RH  099%=      5-min Rain = 0
KHA2 231106Z 34011KT 11/11 A3008 RMK A01 T01080106  RH  099%=      5-min Rain = 0
KHA2 231107Z 34010KT 11/11 A3008 RMK A01 T01080106  RH  099%=      5-min Rain = 0
KHA2 231108Z 34010KT 11/11 A3008 RMK A01 T01080106  RH  099%=      5-min Rain = 0
KHA2 231109Z 34008KT 11/11 A3009 RMK A01 T01080106  RH  099%=      5-min Rain = 0
KHA2 231110Z 34010KT 11/11 A3009 RMK A01 T01090107  RH  099%=      5-min Rain = 0.01
KHA2 231111Z 34009KT 11/11 A3009 RMK A01 T01090107  RH  099%=      5-min Rain = 0
KHA2 231112Z 34009KT 11/11 A3009 RMK A01 T01090107  RH  099%=      5-min Rain = 0
KHA2 231113Z 34011KT 11/11 A3009 RMK A01 T01090107  RH  099%=      5-min Rain = 0
KHA2 231114Z 34009KT 11/11 A3009 RMK A01 T01090107  RH  099%=      5-min Rain = 0
KHA2 231115Z 34010KT 11/11 A3009 RMK A01 T01090106  RH  099%=      5-min Rain = 0
KHA2 231116Z 34008KT 11/11 A3009 RMK A01 T01090106  RH  098%=      5-min Rain = 0
KHA2 231117Z 34009KT 11/11 A3009 RMK A01 T01090106  RH  098%=      5-min Rain = 0
KHA2 231118Z 34010KT 11/11 A3009 RMK A01 T01090106  RH  098%=      5-min Rain = 0
KHA2 231119Z 34010KT 11/11 A3009 RMK A01 T01090106  RH  098%=      5-min Rain = 0
KHA2 231120Z 34011KT 11/11 A3009 RMK A01 T01090106  RH  098%=      5-min Rain = 0
KHA2 231121Z 34010KT 11/11 A3009 RMK A01 T01090106  RH  098%=      5-min Rain = 0
KHA2 231122Z 34010KT 11/11 A3009 RMK A01 T01090106  RH  098%=      5-min Rain = 0
KHA2 231123Z 34010KT 11/11 A3009 RMK A01 T01090106  RH  098%=      5-min Rain = 0
KHA2 231124Z 34009KT 11/11 A301 RMK A01 T01090106  RH  098%=      5-min Rain = 0
KHA2 231125Z 35008KT 11/11 A301 RMK A01 T01090106  RH  098%=      5-min Rain = 0
KHA2 231126Z 34009KT 11/11 A301 RMK A01 T01100107  RH  098%=      5-min Rain = 0
KHA2 231127Z 35009KT 11/11 A301 RMK A01 T01100107  RH  098%=      5-min Rain = 0
KHA2 231128Z 34009KT 11/11 A301 RMK A01 T01100107  RH  098%=      5-min Rain = 0
KHA2 231129Z 35009KT 11/11 A301 RMK A01 T01100107  RH  098%=      5-min Rain = 0.01
KHA2 231130Z 34009KT 11/11 A301 RMK A01 T01100107  RH  098%=      5-min Rain = 0
KHA2 231131Z 35008KT 11/11 A301 RMK A01 T01100107  RH  098%=      5-min Rain = 0
KHA2 231132Z 35007KT 11/11 A301 RMK A01 T01100107  RH  098%=      5-min Rain = 0
KHA2 231133Z 35007KT 11/11 A301 RMK A01 T01100106  RH  098%=      5-min Rain = 0
KHA2 231134Z 35007KT 11/11 A301 RMK A01 T01100107  RH  098%=      5-min Rain = 0
KHA2 231135Z 35008KT 11/11 A301 RMK A01 T01100107  RH  098%=      5-min Rain = 0
KHA2 231136Z 35008KT 11/11 A301 RMK A01 T01100107  RH  098%=      5-min Rain = 0
KHA2 231137Z 35007KT 11/11 A301 RMK A01 T01100107  RH  098%=      5-min Rain = 0
KHA2 231138Z 35007KT 11/11 A301 RMK A01 T01100107  RH  098%=      5-min Rain = 0
KHA2 231139Z 36008KT 11/11 A301 RMK A01 T01100107  RH  098%=      5-min Rain = 0
KHA2 231140Z 01009KT 11/11 A301 RMK A01 T01100107  RH  098%=      5-min Rain = 0.01
KHA2 231141Z 00009KT 11/11 A3009 RMK A01 T01100107  RH  098%=      5-min Rain = 0
KHA2 231142Z 01010KT 11/11 A3009 RMK A01 T01100107  RH  098%=      5-min Rain = 0
KHA2 231143Z 01012KT 11/11 A3009 RMK A01 T01100107  RH  098%=      5-min Rain = 0
KHA2 231144Z 02011KT 11/11 A3009 RMK A01 T01100107  RH  098%=      5-min Rain = 0
KHA2 231145Z 02013KT 11/11 A3008 RMK A01 T01100107  RH  098%=      5-min Rain = 0
KHA2 231146Z 01012KT 11/11 A3008 RMK A01 T01100107  RH  098%=      5-min Rain = 0
KHA2 231147Z 01011KT 11/11 A3008 RMK A01 T01100107  RH  098%=      5-min Rain = 0.01
KHA2 231148Z 01012KT 11/11 A3009 RMK A01 T01100107  RH  098%=      5-min Rain = 0
KHA2 231149Z 00011KT 11/11 A3009 RMK A01 T01100107  RH  098%=      5-min Rain = 0
KHA2 231150Z 00010KT 11/11 A3009 RMK A01 T01100107  RH  098%=      5-min Rain = 0
KHA2 231151Z 00011KT 11/11 A3009 RMK A01 T01100107  RH  098%=      5-min Rain = 0
KHA2 231152Z 01009KT 11/11 A301 RMK A01 T01100107  RH  098%=      5-min Rain = 0
KHA2 231153Z 00009KT 11/11 A301 RMK A01 T01100107  RH  098%=      5-min Rain = 0
KHA2 231154Z 00010KT 11/11 A301 RMK A01 T01090106  RH  098%=      5-min Rain = 0
KHA2 231155Z 00011KT 11/11 A301 RMK A01 T01090107  RH  098%=      5-min Rain = 0
KHA2 231156Z 00011KT 11/11 A301 RMK A01 T01100107  RH  098%=      5-min Rain = 0.01
KHA2 231157Z 36010KT 11/11 A301 RMK A01 T01090107  RH  098%=      5-min Rain = 0
KHA2 231158Z 00009KT 11/11 A301 RMK A01 T01090107  RH  098%=      5-min Rain = 0
KHA2 231159Z 00010KT 11/11 A301 RMK A01 T01100107  RH  098%=      5-min Rain = 0
KHA2 231200Z 36010KT 11/11 A301 RMK A01 T01100107  RH  098%=      5-min Rain = 0
KHA2 231201Z 35009KT 11/11 A301 RMK A01 T01100107  RH  098%=      5-min Rain = 0
KHA2 231202Z 35010KT 11/11 A301 RMK A01 T01100107  RH  098%=      5-min Rain = 0
KHA2 231203Z 35010KT 11/11 A301 RMK A01 T01100107  RH  098%=      5-min Rain = 0
KHA2 231204Z 36011KT 11/11 A301 RMK A01 T01100107  RH  098%=      5-min Rain = 0
KHA2 231205Z 35010KT 11/11 A301 RMK A01 T01100107  RH  098%=      5-min Rain = 0
KHA2 231206Z 00009KT 11/11 A301 RMK A01 T01090107  RH  098%=      5-min Rain = 0
KHA2 231207Z 36012KT 11/11 A301 RMK A01 T01100107  RH  098%=      5-min Rain = 0
KHA2 231208Z 36010KT 11/11 A301 RMK A01 T01090106  RH  098%=      5-min Rain = 0
KHA2 231209Z 36012KT 11/11 A301 RMK A01 T01090106  RH  098%=      5-min Rain = 0
KHA2 231210Z 00012KT 11/11 A301 RMK A01 T01090106  RH  098%=      5-min Rain = 0
KHA2 231211Z 36012KT 11/11 A301 RMK A01 T01090106  RH  098%=      5-min Rain = 0
KHA2 231212Z 00010KT 11/11 A301 RMK A01 T01090106  RH  098%=      5-min Rain = 0
KHA2 231213Z 00011KT 11/11 A301 RMK A01 T01090106  RH  098%=      5-min Rain = 0
KHA2 231214Z 36012KT 11/11 A301 RMK A01 T01090106  RH  098%=      5-min Rain = 0
KHA2 231215Z 36011KT 11/11 A301 RMK A01 T01090106  RH  098%=      5-min Rain = 0
KHA2 231216Z 00011KT 11/11 A301 RMK A01 T01090106  RH  098%=      5-min Rain = 0
KHA2 231217Z 36011KT 11/11 A301 RMK A01 T01090106  RH  098%=      5-min Rain = 0
KHA2 231218Z 36011KT 11/11 A301 RMK A01 T01090106  RH  098%=      5-min Rain = 0.01
KHA2 231219Z 36012KT 11/11 A301 RMK A01 T01090106  RH  098%=      5-min Rain = 0
KHA2 231220Z 36011KT 11/11 A301 RMK A01 T01090106  RH  098%=      5-min Rain = 0
KHA2 231221Z 35012KT 11/11 A301 RMK A01 T01090106  RH  098%=      5-min Rain = 0
KHA2 231222Z 35014KT 11/11 A301 RMK A01 T01090106  RH  098%=      5-min Rain = 0
KHA2 231223Z 35012KT 11/11 A301 RMK A01 T01090106  RH  098%=      5-min Rain = 0
KHA2 231224Z 35011KT 11/11 A301 RMK A01 T01090106  RH  098%=      5-min Rain = 0
KHA2 231225Z 36013KT 11/11 A301 RMK A01 T01090105  RH  098%=      5-min Rain = 0
KHA2 231226Z 35012KT 11/11 A301 RMK A01 T01090105  RH  098%=      5-min Rain = 0
KHA2 231227Z 35012KT 11/11 A301 RMK A01 T01090105  RH  098%=      5-min Rain = 0
KHA2 231228Z 35012KT 11/11 A301 RMK A01 T01090106  RH  098%=      5-min Rain = 0
KHA2 231229Z 35011KT 11/11 A301 RMK A01 T01090106  RH  098%=      5-min Rain = 0
KHA2 231230Z 35012KT 11/11 A301 RMK A01 T01090106  RH  098%=      5-min Rain = 0
KHA2 231231Z 35012KT 11/11 A3011 RMK A01 T01100106  RH  098%=      5-min Rain = 0
KHA2 231232Z 35011KT 11/11 A3011 RMK A01 T01100106  RH  098%=      5-min Rain = 0
KHA2 231233Z 35010KT 11/11 A3011 RMK A01 T01100107  RH  098%=      5-min Rain = 0
KHA2 231234Z 35011KT 11/11 A3011 RMK A01 T01100107  RH  098%=      5-min Rain = 0
KHA2 231235Z 35011KT 11/11 A3011 RMK A01 T01100107  RH  098%=      5-min Rain = 0
KHA2 231236Z 35012KT 11/11 A3011 RMK A01 T01100107  RH  098%=      5-min Rain = 0
KHA2 231237Z 36011KT 11/11 A3011 RMK A01 T01100107  RH  098%=      5-min Rain = 0
KHA2 231238Z 35011KT 11/11 A3011 RMK A01 T01100107  RH  098%=      5-min Rain = 0
KHA2 231239Z 35013KT 11/11 A3011 RMK A01 T01100107  RH  098%=      5-min Rain = 0
KHA2 231240Z 36012KT 11/11 A3011 RMK A01 T01100107  RH  098%=      5-min Rain = 0
KHA2 231241Z 35012KT 11/11 A3011 RMK A01 T01100106  RH  098%=      5-min Rain = 0
KHA2 231242Z 35013KT 11/11 A3011 RMK A01 T01100106  RH  097%=      5-min Rain = 0
KHA2 231243Z 36013KT 11/11 A3011 RMK A01 T01100106  RH  097%=      5-min Rain = 0
KHA2 231244Z 35014KT 11/11 A3011 RMK A01 T01100106  RH  097%=      5-min Rain = 0
KHA2 231245Z 36012KT 11/11 A3012 RMK A01 T01100106  RH  097%=      5-min Rain = 0
KHA2 231246Z 35015KT 11/11 A3012 RMK A01 T01100106  RH  097%=      5-min Rain = 0
KHA2 231247Z 36014KT 11/11 A3011 RMK A01 T01100105  RH  097%=      5-min Rain = 0
KHA2 231248Z 36013KT 11/11 A3012 RMK A01 T01100105  RH  097%=      5-min Rain = 0
KHA2 231249Z 36011KT 11/11 A3012 RMK A01 T01100105  RH  097%=      5-min Rain = 0
KHA2 231250Z 36012KT 11/11 A3012 RMK A01 T01100105  RH  097%=      5-min Rain = 0
KHA2 231251Z 36011KT 11/11 A3012 RMK A01 T01100106  RH  097%=      5-min Rain = 0
KHA2 231252Z 35012KT 11/11 A3012 RMK A01 T01100105  RH  097%=      5-min Rain = 0
KHA2 231253Z 36013KT 11/11 A3012 RMK A01 T01100106  RH  097%=      5-min Rain = 0
KHA2 231254Z 36013KT 11/11 A3012 RMK A01 T01100105  RH  097%=      5-min Rain = 0
KHA2 231255Z 36013KT 11/11 A3012 RMK A01 T01100105  RH  097%=      5-min Rain = 0
KHA2 231256Z 36011KT 11/11 A3012 RMK A01 T01100105  RH  097%=      5-min Rain = 0
KHA2 231257Z 36012KT 11/11 A3012 RMK A01 T01100105  RH  097%=      5-min Rain = 0
KHA2 231258Z 36012KT 11/11 A3012 RMK A01 T01100105  RH  097%=      5-min Rain = 0
KHA2 231259Z 35013KT 11/11 A3012 RMK A01 T01100105  RH  097%=      5-min Rain = 0
KHA2 231300Z 36015KT 11/11 A3011 RMK A01 T01090105  RH  097%=      5-min Rain = 0
KHA2 231301Z 36014KT 11/11 A3011 RMK A01 T01090105  RH  097%=      5-min Rain = 0
KHA2 231302Z 36015KT 11/11 A3012 RMK A01 T01100105  RH  097%=      5-min Rain = 0
KHA2 231303Z 35013KT 11/10 A3012 RMK A01 T01090104  RH  097%=      5-min Rain = 0
KHA2 231304Z 35014KT 11/10 A3012 RMK A01 T01090104  RH  097%=      5-min Rain = 0
KHA2 231305Z 36014KT 11/10 A3012 RMK A01 T01100104  RH  096%=      5-min Rain = 0
KHA2 231306Z 35013KT 11/10 A3012 RMK A01 T01100104  RH  096%=      5-min Rain = 0
KHA2 231307Z 00012KT 11/10 A3012 RMK A01 T01100104  RH  096%=      5-min Rain = 0
KHA2 231308Z 36013KT 11/10 A3012 RMK A01 T01100104  RH  096%=      5-min Rain = 0
KHA2 231309Z 36011KT 11/10 A3012 RMK A01 T01090104  RH  097%=      5-min Rain = 0
KHA2 231310Z 00014KT 11/11 A3012 RMK A01 T01100105  RH  097%=      5-min Rain = 0
KHA2 231311Z 01014KT 11/10 A3012 RMK A01 T01090104  RH  096%=      5-min Rain = 0
KHA2 231312Z 01015KT 11/10 A3012 RMK A01 T01090103  RH  096%=      5-min Rain = 0
KHA2 231313Z 01017KT 11/10 A3012 RMK A01 T01080102  RH  096%=      5-min Rain = 0
KHA2 231314Z 02016KT 11/10 A3012 RMK A01 T01080101  RH  096%=      5-min Rain = 0
KHA2 231315Z 02017KT 11/10 A3012 RMK A01 T01070101  RH  096%=      5-min Rain = 0
KHA2 231316Z 02019KT 11/10 A3011 RMK A01 T01070100  RH  095%=      5-min Rain = 0
KHA2 231317Z 02016KT 11/10 A3011 RMK A01 T01070099  RH  095%=      5-min Rain = 0
KHA2 231318Z 02017KT 11/10 A3011 RMK A01 T01060099  RH  095%=      5-min Rain = 0
KHA2 231319Z 02015KT 11/10 A3011 RMK A01 T01060099  RH  095%=      5-min Rain = 0
KHA2 231320Z 02015KT 11/10 A3011 RMK A01 T01060100  RH  096%=      5-min Rain = 0
KHA2 231321Z 02019KT 11/10 A3011 RMK A01 T01060099  RH  096%=      5-min Rain = 0
KHA2 231322Z 02014KT 11/10 A3011 RMK A01 T01070100  RH  096%=      5-min Rain = 0
KHA2 231323Z 02017KT 11/10 A3011 RMK A01 T01070101  RH  096%=      5-min Rain = 0
KHA2 231324Z 02019KT 11/10 A3011 RMK A01 T01070100  RH  096%=      5-min Rain = 0
KHA2 231325Z 02018KT 11/10 A3011 RMK A01 T01070100  RH  096%=      5-min Rain = 0
KHA2 231326Z 02016KT 11/10 A301 RMK A01 T01070100  RH  095%=      5-min Rain = 0
KHA2 231327Z 02015KT 11/10 A301 RMK A01 T01070100  RH  096%=      5-min Rain = 0
KHA2 231328Z 02015KT 11/10 A3011 RMK A01 T01070100  RH  096%=      5-min Rain = 0
KHA2 231329Z 02015G21KT 11/10 A3011 RMK A01 T01070101  RH  096%=      5-min Rain = 0
KHA2 231330Z 02015G21KT 11/10 A3011 RMK A01 T01070101  RH  096%=      5-min Rain = 0
KHA2 231331Z 02017KT 11/10 A3011 RMK A01 T01070100  RH  096%=      5-min Rain = 0
KHA2 231332Z 02017KT 11/10 A3011 RMK A01 T01070100  RH  095%=      5-min Rain = 0
KHA2 231333Z 02016KT 11/10 A3011 RMK A01 T01070100  RH  095%=      5-min Rain = 0
KHA2 231334Z 01017KT 11/10 A3011 RMK A01 T01070100  RH  095%=      5-min Rain = 0
KHA2 231335Z 02019KT 11/10 A3011 RMK A01 T01070099  RH  095%=      5-min Rain = 0
KHA2 231336Z 02016KT 11/10 A3011 RMK A01 T01060099  RH  095%=      5-min Rain = 0
KHA2 231337Z 02016KT 11/10 A3011 RMK A01 T01060098  RH  095%=      5-min Rain = 0
KHA2 231338Z 02017KT 11/10 A3012 RMK A01 T01060099  RH  095%=      5-min Rain = 0
KHA2 231339Z 02017KT 11/10 A3012 RMK A01 T01060099  RH  095%=      5-min Rain = 0
KHA2 231340Z 02015KT 11/10 A3012 RMK A01 T01060099  RH  095%=      5-min Rain = 0
KHA2 231341Z 02015KT 11/10 A3012 RMK A01 T01060099  RH  095%=      5-min Rain = 0
KHA2 231342Z 02015KT 11/10 A3012 RMK A01 T01060099  RH  095%=      5-min Rain = 0
KHA2 231343Z 02015KT 11/10 A3012 RMK A01 T01060099  RH  095%=      5-min Rain = 0
KHA2 231344Z 02013KT 11/10 A3012 RMK A01 T01060099  RH  095%=      5-min Rain = 0
KHA2 231345Z 02012KT 11/10 A3012 RMK A01 T01060100  RH  096%=      5-min Rain = 0
KHA2 231346Z 02013KT 11/10 A3012 RMK A01 T01070100  RH  096%=      5-min Rain = 0
KHA2 231347Z 02012KT 11/10 A3012 RMK A01 T01070100  RH  096%=      5-min Rain = 0
KHA2 231348Z 02015KT 11/10 A3012 RMK A01 T01070101  RH  096%=      5-min Rain = 0
KHA2 231349Z 02013KT 11/10 A3012 RMK A01 T01070100  RH  096%=      5-min Rain = 0
KHA2 231350Z 02013KT 11/10 A3012 RMK A01 T01070101  RH  096%=      5-min Rain = 0
KHA2 231351Z 02016KT 11/10 A3011 RMK A01 T01070101  RH  096%=      5-min Rain = 0
KHA2 231352Z 03016KT 11/10 A3011 RMK A01 T01070100  RH  095%=      5-min Rain = 0
KHA2 231353Z 03016G21KT 11/10 A3011 RMK A01 T01070099  RH  095%=      5-min Rain = 0
KHA2 231354Z 03019KT 11/10 A3011 RMK A01 T01070099  RH  095%=      5-min Rain = 0
KHA2 231355Z 03019KT 11/10 A3011 RMK A01 T01060098  RH  094%=      5-min Rain = 0
KHA2 231356Z 03016KT 11/10 A301 RMK A01 T01060098  RH  095%=      5-min Rain = 0
KHA2 231357Z 03019KT 11/10 A301 RMK A01 T01060099  RH  095%=      5-min Rain = 0
KHA2 231358Z 03018KT 11/10 A301 RMK A01 T01060098  RH  095%=      5-min Rain = 0
KHA2 231359Z 03018KT 11/10 A301 RMK A01 T01060099  RH  095%=      5-min Rain = 0
KHA2 231400Z 03020KT 11/10 A301 RMK A01 T01060099  RH  095%=      5-min Rain = 0
KHA2 231401Z 03019KT 11/10 A301 RMK A01 T01060098  RH  095%=      5-min Rain = 0
KHA2 231402Z 03018KT 11/10 A301 RMK A01 T01060099  RH  095%=      5-min Rain = 0
KHA2 231403Z 03016KT 11/10 A301 RMK A01 T01060099  RH  095%=      5-min Rain = 0
KHA2 231404Z 03019KT 11/10 A301 RMK A01 T01060100  RH  096%=      5-min Rain = 0
KHA2 231405Z 03019KT 11/10 A301 RMK A01 T01060099  RH  095%=      5-min Rain = 0
KHA2 231406Z 03019KT 11/10 A301 RMK A01 T01060098  RH  095%=      5-min Rain = 0
KHA2 231407Z 03019KT 11/10 A301 RMK A01 T01060098  RH  095%=      5-min Rain = 0
KHA2 231408Z 03020KT 11/10 A301 RMK A01 T01060098  RH  095%=      5-min Rain = 0
KHA2 231409Z 03018KT 11/10 A3009 RMK A01 T01060098  RH  095%=      5-min Rain = 0
KHA2 231410Z 03017G23KT 11/10 A3009 RMK A01 T01060098  RH  095%=      5-min Rain = 0
KHA2 231411Z 03019KT 11/10 A3009 RMK A01 T01060098  RH  095%=      5-min Rain = 0
KHA2 231412Z 03017KT 11/10 A3009 RMK A01 T01060098  RH  095%=      5-min Rain = 0
KHA2 231413Z 04017KT 11/10 A3009 RMK A01 T01070099  RH  095%=      5-min Rain = 0
KHA2 231414Z 03020KT 11/10 A3009 RMK A01 T01080100  RH  095%=      5-min Rain = 0
KHA2 231415Z 04016KT 11/10 A3009 RMK A01 T01070099  RH  095%=      5-min Rain = 0
KHA2 231416Z 04020KT 11/10 A3008 RMK A01 T01080100  RH  095%=      5-min Rain = 0
KHA2 231417Z 04018KT 11/10 A3008 RMK A01 T01070099  RH  094%=      5-min Rain = 0
KHA2 231418Z 04017KT 11/10 A3008 RMK A01 T01070099  RH  095%=      5-min Rain = 0
KHA2 231419Z 04017KT 11/10 A3008 RMK A01 T01070099  RH  095%=      5-min Rain = 0
KHA2 231420Z 04017KT 11/10 A3008 RMK A01 T01070099  RH  095%=      5-min Rain = 0
KHA2 231421Z 04016KT 11/10 A3008 RMK A01 T01070100  RH  095%=      5-min Rain = 0
KHA2 231422Z 03013KT 11/10 A3009 RMK A01 T01070100  RH  095%=      5-min Rain = 0
KHA2 231423Z 04013KT 11/10 A3009 RMK A01 T01070101  RH  096%=      5-min Rain = 0
KHA2 231424Z 03013KT 11/10 A3009 RMK A01 T01070101  RH  096%=      5-min Rain = 0
KHA2 231425Z 03016G22KT 11/10 A3009 RMK A01 T01070100  RH  096%=      5-min Rain = 0
KHA2 231426Z 03020KT 11/10 A3009 RMK A01 T01070099  RH  095%=      5-min Rain = 0
KHA2 231427Z 03020KT 11/10 A3009 RMK A01 T01060097  RH  095%=      5-min Rain = 0
KHA2 231428Z 03017KT 11/10 A3009 RMK A01 T01050097  RH  094%=      5-min Rain = 0
KHA2 231429Z 04014KT 11/10 A301 RMK A01 T01060098  RH  095%=      5-min Rain = 0
KHA2 231430Z 03016KT 11/10 A301 RMK A01 T01060098  RH  095%=      5-min Rain = 0
KHA2 231431Z 04018KT 11/10 A3009 RMK A01 T01060098  RH  095%=      5-min Rain = 0
KHA2 231432Z 03018KT 11/10 A3009 RMK A01 T01060097  RH  094%=      5-min Rain = 0
KHA2 231433Z 03016KT 11/10 A3009 RMK A01 T01060097  RH  094%=      5-min Rain = 0
KHA2 231434Z 03016KT 11/10 A3009 RMK A01 T01060098  RH  095%=      5-min Rain = 0
KHA2 231435Z 03017G22KT 11/10 A3009 RMK A01 T01060098  RH  095%=      5-min Rain = 0
KHA2 231436Z 04017KT 11/10 A3009 RMK A01 T01060098  RH  094%=      5-min Rain = 0
KHA2 231437Z 04017KT 11/10 A3009 RMK A01 T01060098  RH  095%=      5-min Rain = 0
KHA2 231438Z 04016G21KT 11/10 A3009 RMK A01 T01060097  RH  094%=      5-min Rain = 0
KHA2 231439Z 04019KT 11/10 A3009 RMK A01 T01060097  RH  094%=      5-min Rain = 0
KHA2 231440Z 04017KT 11/10 A301 RMK A01 T01060097  RH  094%=      5-min Rain = 0
KHA2 231441Z 04016KT 11/10 A301 RMK A01 T01060097  RH  094%=      5-min Rain = 0
KHA2 231442Z 04017G22KT 11/10 A301 RMK A01 T01070098  RH  094%=      5-min Rain = 0
KHA2 231443Z 03017KT 11/10 A301 RMK A01 T01070097  RH  094%=      5-min Rain = 0
KHA2 231444Z 03015G20KT 11/10 A3011 RMK A01 T01070097  RH  094%=      5-min Rain = 0
KHA2 231445Z 03016KT 11/10 A3011 RMK A01 T01070097  RH  094%=      5-min Rain = 0
KHA2 231446Z 03016KT 11/10 A3011 RMK A01 T01070096  RH  093%=      5-min Rain = 0
KHA2 231447Z 03020KT 11/10 A3011 RMK A01 T01070096  RH  093%=      5-min Rain = 0
KHA2 231448Z 04019KT 11/10 A3011 RMK A01 T01060095  RH  093%=      5-min Rain = 0
KHA2 231449Z 04016KT 11/10 A3012 RMK A01 T01060096  RH  094%=      5-min Rain = 0
KHA2 231450Z 03016KT 11/10 A3012 RMK A01 T01060096  RH  094%=      5-min Rain = 0
KHA2 231451Z 03014KT 11/10 A3012 RMK A01 T01060096  RH  094%=      5-min Rain = 0
KHA2 231452Z 03016KT 11/10 A3012 RMK A01 T01060097  RH  094%=      5-min Rain = 0
KHA2 231453Z 03014KT 11/10 A3012 RMK A01 T01060097  RH  094%=      5-min Rain = 0
KHA2 231454Z 03015KT 11/10 A3012 RMK A01 T01060097  RH  094%=      5-min Rain = 0
KHA2 231455Z 03016KT 11/10 A3013 RMK A01 T01060097  RH  094%=      5-min Rain = 0
KHA2 231456Z 03018KT 11/10 A3013 RMK A01 T01060095  RH  093%=      5-min Rain = 0
KHA2 231457Z 03015KT 11/10 A3013 RMK A01 T01060095  RH  093%=      5-min Rain = 0
KHA2 231458Z 03017KT 11/10 A3013 RMK A01 T01060096  RH  093%=      5-min Rain = 0
KHA2 231459Z 03017KT 11/10 A3013 RMK A01 T01060096  RH  093%=      5-min Rain = 0
KHA2 231500Z 03017KT 11/10 A3013 RMK A01 T01060095  RH  093%=      5-min Rain = 0
KHA2 231501Z 03017KT 11/10 A3013 RMK A01 T01060095  RH  093%=      5-min Rain = 0
KHA2 231502Z 03018KT 11/09 A3013 RMK A01 T01050094  RH  093%=      5-min Rain = 0
KHA2 231503Z 03014KT 11/09 A3013 RMK A01 T01050094  RH  093%=      5-min Rain = 0
KHA2 231504Z 04012KT 11/10 A3013 RMK A01 T01050095  RH  094%=      5-min Rain = 0
KHA2 231505Z 03012KT 11/10 A3013 RMK A01 T01060097  RH  094%=      5-min Rain = 0
KHA2 231506Z 03014KT 11/10 A3013 RMK A01 T01060098  RH  094%=      5-min Rain = 0
KHA2 231507Z 03017KT 11/10 A3013 RMK A01 T01060097  RH  094%=      5-min Rain = 0
KHA2 231508Z 03016KT 11/10 A3013 RMK A01 T01060096  RH  093%=      5-min Rain = 0
KHA2 231509Z 03015KT 11/10 A3013 RMK A01 T01060096  RH  093%=      5-min Rain = 0
KHA2 231510Z 03018KT 11/10 A3013 RMK A01 T01060095  RH  093%=      5-min Rain = 0
KHA2 231511Z 04017KT 11/09 A3013 RMK A01 T01060094  RH  093%=      5-min Rain = 0
KHA2 231512Z 04015KT 11/10 A3013 RMK A01 T01050095  RH  093%=      5-min Rain = 0
KHA2 231513Z 03015KT 11/10 A3013 RMK A01 T01050095  RH  093%=      5-min Rain = 0
KHA2 231514Z 03014KT 11/10 A3013 RMK A01 T01060096  RH  094%=      5-min Rain = 0
KHA2 231515Z 03016KT 11/10 A3013 RMK A01 T01060095  RH  093%=      5-min Rain = 0
KHA2 231516Z 03017KT 11/09 A3013 RMK A01 T01050094  RH  092%=      5-min Rain = 0
KHA2 231517Z 04013KT 11/09 A3013 RMK A01 T01060094  RH  092%=      5-min Rain = 0
KHA2 231518Z 04014KT 11/10 A3013 RMK A01 T01070096  RH  093%=      5-min Rain = 0
KHA2 231519Z 03016KT 11/10 A3013 RMK A01 T01070095  RH  092%=      5-min Rain = 0
KHA2 231520Z 03016KT 11/09 A3013 RMK A01 T01060093  RH  092%=      5-min Rain = 0
KHA2 231521Z 03016KT 11/09 A3013 RMK A01 T01060094  RH  092%=      5-min Rain = 0
KHA2 231522Z 03017KT 11/09 A3013 RMK A01 T01060094  RH  092%=      5-min Rain = 0
KHA2 231523Z 04013KT 11/09 A3013 RMK A01 T01050093  RH  092%=      5-min Rain = 0
KHA2 231524Z 04014KT 11/10 A3013 RMK A01 T01060095  RH  093%=      5-min Rain = 0
KHA2 231525Z 04015KT 11/09 A3013 RMK A01 T01060094  RH  092%=      5-min Rain = 0
KHA2 231526Z 03015KT 11/09 A3013 RMK A01 T01060094  RH  092%=      5-min Rain = 0
KHA2 231527Z 03013KT 11/09 A3013 RMK A01 T01060094  RH  092%=      5-min Rain = 0
KHA2 231528Z 03014KT 11/10 A3013 RMK A01 T01060095  RH  093%=      5-min Rain = 0
KHA2 231529Z 04015KT 11/10 A3013 RMK A01 T01070095  RH  093%=      5-min Rain = 0
KHA2 231530Z 04015KT 11/10 A3014 RMK A01 T01070095  RH  092%=      5-min Rain = 0
KHA2 231531Z 04013KT 11/09 A3014 RMK A01 T01060093  RH  092%=      5-min Rain = 0
KHA2 231532Z 03011KT 11/09 A3014 RMK A01 T01060094  RH  092%=      5-min Rain = 0
KHA2 231533Z 03011KT 11/10 A3014 RMK A01 T01060096  RH  093%=      5-min Rain = 0
KHA2 231534Z 03011KT 11/10 A3014 RMK A01 T01070097  RH  094%=      5-min Rain = 0
KHA2 231535Z 03014KT 11/10 A3014 RMK A01 T01070097  RH  093%=      5-min Rain = 0
KHA2 231536Z 03014KT 11/10 A3014 RMK A01 T01060095  RH  093%=      5-min Rain = 0
KHA2 231537Z 02014KT 11/10 A3014 RMK A01 T01050095  RH  093%=      5-min Rain = 0
KHA2 231538Z 03013KT 11/10 A3014 RMK A01 T01050095  RH  093%=      5-min Rain = 0
KHA2 231539Z 03010KT 11/10 A3014 RMK A01 T01050096  RH  094%=      5-min Rain = 0
KHA2 231540Z 03012KT 11/10 A3014 RMK A01 T01060096  RH  094%=      5-min Rain = 0
KHA2 231541Z 03013KT 11/10 A3014 RMK A01 T01050096  RH  094%=      5-min Rain = 0
KHA2 231542Z 03014KT 11/10 A3014 RMK A01 T01050096  RH  094%=      5-min Rain = 0
KHA2 231543Z 03014KT 11/10 A3014 RMK A01 T01050095  RH  094%=      5-min Rain = 0
KHA2 231544Z 03014KT 11/10 A3014 RMK A01 T01050095  RH  094%=      5-min Rain = 0
KHA2 231545Z 03014KT 11/10 A3014 RMK A01 T01050095  RH  094%=      5-min Rain = 0
KHA2 231546Z 03013KT 11/09 A3014 RMK A01 T01050094  RH  093%=      5-min Rain = 0
KHA2 231547Z 04013KT 11/09 A3014 RMK A01 T01050094  RH  093%=      5-min Rain = 0
KHA2 231548Z 04014KT 11/10 A3014 RMK A01 T01050095  RH  094%=      5-min Rain = 0
KHA2 231549Z 03015KT 11/10 A3014 RMK A01 T01050095  RH  093%=      5-min Rain = 0
KHA2 231550Z 04012KT 11/10 A3014 RMK A01 T01050095  RH  093%=      5-min Rain = 0
KHA2 231551Z 03013KT 11/10 A3014 RMK A01 T01050095  RH  093%=      5-min Rain = 0
KHA2 231552Z 03014KT 11/09 A3014 RMK A01 T01050094  RH  093%=      5-min Rain = 0
KHA2 231553Z 03014KT 10/09 A3014 RMK A01 T01040094  RH  093%=      5-min Rain = 0
KHA2 231554Z 04014KT 11/09 A3014 RMK A01 T01050094  RH  093%=      5-min Rain = 0
KHA2 231555Z 03015KT 10/09 A3014 RMK A01 T01040094  RH  093%=      5-min Rain = 0
KHA2 231556Z 03012KT 11/09 A3014 RMK A01 T01050093  RH  093%=      5-min Rain = 0
KHA2 231557Z 03014KT 11/09 A3014 RMK A01 T01050094  RH  093%=      5-min Rain = 0
KHA2 231558Z 03015KT 11/09 A3013 RMK A01 T01050094  RH  093%=      5-min Rain = 0
KHA2 231559Z 04015KT 11/09 A3013 RMK A01 T01050093  RH  092%=      5-min Rain = 0
KHA2 231600Z 04014KT 11/09 A3013 RMK A01 T01050092  RH  092%=      5-min Rain = 0
KHA2 231601Z 04015KT 11/09 A3013 RMK A01 T01050093  RH  092%=      5-min Rain = 0
KHA2 231602Z 04016KT 11/09 A3013 RMK A01 T01050091  RH  091%=      5-min Rain = 0
KHA2 231603Z 03015KT 10/09 A3013 RMK A01 T01040091  RH  091%=      5-min Rain = 0
KHA2 231604Z 04015KT 11/09 A3013 RMK A01 T01050091  RH  091%=      5-min Rain = 0
KHA2 231605Z 04014KT 11/09 A3013 RMK A01 T01050092  RH  092%=      5-min Rain = 0
KHA2 231606Z 04015KT 11/09 A3013 RMK A01 T01060092  RH  091%=      5-min Rain = 0
KHA2 231607Z 03013KT 11/09 A3013 RMK A01 T01060092  RH  091%=      5-min Rain = 0
KHA2 231608Z 04016KT 11/09 A3013 RMK A01 T01060092  RH  091%=      5-min Rain = 0
KHA2 231609Z 04016KT 11/09 A3013 RMK A01 T01060091  RH  091%=      5-min Rain = 0
KHA2 231610Z 03015KT 11/09 A3013 RMK A01 T01050091  RH  091%=      5-min Rain = 0
KHA2 231611Z 03014KT 11/09 A3013 RMK A01 T01050091  RH  091%=      5-min Rain = 0
KHA2 231612Z 04014KT 11/09 A3013 RMK A01 T01050092  RH  092%=      5-min Rain = 0
KHA2 231613Z 04017KT 11/09 A3013 RMK A01 T01050092  RH  092%=      5-min Rain = 0
KHA2 231614Z 03014KT 11/09 A3013 RMK A01 T01050091  RH  091%=      5-min Rain = 0
KHA2 231615Z 03013KT 11/09 A3013 RMK A01 T01050092  RH  092%=      5-min Rain = 0
KHA2 231616Z 03015KT 11/09 A3013 RMK A01 T01050093  RH  092%=      5-min Rain = 0
KHA2 231617Z 03014KT 11/09 A3013 RMK A01 T01050092  RH  092%=      5-min Rain = 0
KHA2 231618Z 03014KT 10/09 A3013 RMK A01 T01040092  RH  092%=      5-min Rain = 0
KHA2 231619Z 03014KT 10/09 A3014 RMK A01 T01040092  RH  092%=      5-min Rain = 0
KHA2 231620Z 04013KT 10/09 A3014 RMK A01 T01040093  RH  093%=      5-min Rain = 0
KHA2 231621Z 03013KT 10/09 A3014 RMK A01 T01040093  RH  093%=      5-min Rain = 0
KHA2 231622Z 03011KT 10/09 A3014 RMK A01 T01040094  RH  093%=      5-min Rain = 0
KHA2 231623Z 03012KT 10/09 A3014 RMK A01 T01040094  RH  093%=      5-min Rain = 0
KHA2 231624Z 02012KT 10/09 A3014 RMK A01 T01040094  RH  093%=      5-min Rain = 0
KHA2 231625Z 03012KT 10/09 A3014 RMK A01 T01030093  RH  093%=      5-min Rain = 0
KHA2 231626Z 03013KT 10/09 A3014 RMK A01 T01030093  RH  094%=      5-min Rain = 0
KHA2 231627Z 03011KT 10/09 A3014 RMK A01 T01020093  RH  094%=      5-min Rain = 0
KHA2 231628Z 03011KT 10/09 A3014 RMK A01 T01030094  RH  094%=      5-min Rain = 0
KHA2 231629Z 02013KT 10/09 A3014 RMK A01 T01030094  RH  094%=      5-min Rain = 0
KHA2 231630Z 03015KT 10/09 A3014 RMK A01 T01030093  RH  094%=      5-min Rain = 0
KHA2 231631Z 03012KT 10/09 A3014 RMK A01 T01020092  RH  093%=      5-min Rain = 0
KHA2 231632Z 03013KT 10/09 A3014 RMK A01 T01020092  RH  093%=      5-min Rain = 0
KHA2 231633Z 03012KT 10/09 A3014 RMK A01 T01020092  RH  093%=      5-min Rain = 0
KHA2 231634Z 03012KT 10/09 A3014 RMK A01 T01020093  RH  094%=      5-min Rain = 0
KHA2 231635Z 04011KT 10/09 A3014 RMK A01 T01030093  RH  094%=      5-min Rain = 0
KHA2 231636Z 04012KT 10/09 A3014 RMK A01 T01030093  RH  093%=      5-min Rain = 0
KHA2 231637Z 03012KT 10/09 A3014 RMK A01 T01030092  RH  093%=      5-min Rain = 0
KHA2 231638Z 03014KT 10/09 A3014 RMK A01 T01030093  RH  093%=      5-min Rain = 0
KHA2 231639Z 03015KT 10/09 A3014 RMK A01 T01030092  RH  093%=      5-min Rain = 0
KHA2 231640Z 03012KT 10/09 A3014 RMK A01 T01020092  RH  093%=      5-min Rain = 0
KHA2 231641Z 03013KT 10/09 A3014 RMK A01 T01020092  RH  094%=      5-min Rain = 0
KHA2 231642Z 03014KT 10/09 A3014 RMK A01 T01020093  RH  094%=      5-min Rain = 0
KHA2 231643Z 04015KT 10/09 A3014 RMK A01 T01020092  RH  094%=      5-min Rain = 0
KHA2 231644Z 03013KT 10/09 A3014 RMK A01 T01010092  RH  094%=      5-min Rain = 0
KHA2 231645Z 04014KT 10/09 A3014 RMK A01 T01010092  RH  094%=      5-min Rain = 0
KHA2 231646Z 04014KT 10/09 A3014 RMK A01 T01010091  RH  094%=      5-min Rain = 0
KHA2 231647Z 03012KT 10/09 A3014 RMK A01 T01000091  RH  094%=      5-min Rain = 0
KHA2 231648Z 04011KT 10/09 A3015 RMK A01 T01000092  RH  094%=      5-min Rain = 0
KHA2 231649Z 03013KT 10/09 A3015 RMK A01 T01010092  RH  095%=      5-min Rain = 0
KHA2 231650Z 04013KT 10/09 A3015 RMK A01 T01000092  RH  094%=      5-min Rain = 0
KHA2 231651Z 03012KT 10/09 A3015 RMK A01 T01000091  RH  094%=      5-min Rain = 0
KHA2 231652Z 04011KT 10/09 A3015 RMK A01 T01000092  RH  095%=      5-min Rain = 0
KHA2 231653Z 03011KT 10/09 A3015 RMK A01 T01000092  RH  095%=      5-min Rain = 0
KHA2 231654Z 04012KT 10/09 A3015 RMK A01 T01010092  RH  095%=      5-min Rain = 0
KHA2 231655Z 04013KT 10/09 A3015 RMK A01 T01000092  RH  095%=      5-min Rain = 0
KHA2 231656Z 03013KT 10/09 A3015 RMK A01 T01000091  RH  094%=      5-min Rain = 0
KHA2 231657Z 03014KT 10/09 A3015 RMK A01 T00990091  RH  095%=      5-min Rain = 0
KHA2 231658Z 04012KT 10/09 A3015 RMK A01 T00990091  RH  095%=      5-min Rain = 0
KHA2 231659Z 05011KT 10/09 A3015 RMK A01 T00990092  RH  095%=      5-min Rain = 0
KHA2 231700Z 04014KT 10/09 A3014 RMK A01 T01000092  RH  095%=      5-min Rain = 0
KHA2 231701Z 04014KT 10/09 A3014 RMK A01 T01000092  RH  095%=      5-min Rain = 0
KHA2 231702Z 04012KT 10/09 A3014 RMK A01 T00990091  RH  095%=      5-min Rain = 0
KHA2 231703Z 04010KT 10/09 A3014 RMK A01 T00990092  RH  095%=      5-min Rain = 0
KHA2 231704Z 04011KT 10/09 A3014 RMK A01 T01000093  RH  095%=      5-min Rain = 0
KHA2 231705Z 05013KT 10/09 A3014 RMK A01 T01000092  RH  095%=      5-min Rain = 0
KHA2 231706Z 04012KT 10/09 A3014 RMK A01 T01000092  RH  095%=      5-min Rain = 0
KHA2 231707Z 04013KT 10/09 A3014 RMK A01 T01000092  RH  095%=      5-min Rain = 0
KHA2 231708Z 04013KT 10/09 A3014 RMK A01 T01000092  RH  095%=      5-min Rain = 0
KHA2 231709Z 04012KT 10/09 A3014 RMK A01 T01000092  RH  095%=      5-min Rain = 0
KHA2 231710Z 04013KT 10/09 A3014 RMK A01 T01010093  RH  095%=      5-min Rain = 0
KHA2 231711Z 04015KT 10/09 A3013 RMK A01 T01010093  RH  095%=      5-min Rain = 0
KHA2 231712Z 04012KT 10/09 A3013 RMK A01 T01000091  RH  094%=      5-min Rain = 0
KHA2 231713Z 04013KT 10/09 A3013 RMK A01 T01000092  RH  095%=      5-min Rain = 0
KHA2 231714Z 04012KT 10/09 A3013 RMK A01 T01000092  RH  095%=      5-min Rain = 0
KHA2 231715Z 04014KT 10/09 A3013 RMK A01 T01000093  RH  095%=      5-min Rain = 0
KHA2 231716Z 04013KT 10/09 A3013 RMK A01 T01000093  RH  095%=      5-min Rain = 0
KHA2 231717Z 04013KT 10/09 A3013 RMK A01 T01000092  RH  095%=      5-min Rain = 0
KHA2 231718Z 04013KT 10/09 A3013 RMK A01 T01000093  RH  095%=      5-min Rain = 0
KHA2 231719Z 04012KT 10/09 A3013 RMK A01 T00990091  RH  095%=      5-min Rain = 0
KHA2 231720Z 04011KT 10/09 A3013 RMK A01 T00990092  RH  095%=      5-min Rain = 0
KHA2 231721Z 04013KT 10/09 A3013 RMK A01 T00980092  RH  095%=      5-min Rain = 0
KHA2 231722Z 03011KT 10/09 A3013 RMK A01 T00990092  RH  095%=      5-min Rain = 0
KHA2 231723Z 03013KT 10/09 A3013 RMK A01 T00990093  RH  095%=      5-min Rain = 0
KHA2 231724Z 04013KT 10/09 A3013 RMK A01 T00990092  RH  095%=      5-min Rain = 0
KHA2 231725Z 03014KT 10/09 A3013 RMK A01 T00990091  RH  095%=      5-min Rain = 0
KHA2 231726Z 03013KT 10/09 A3013 RMK A01 T00990091  RH  095%=      5-min Rain = 0
KHA2 231727Z 03014KT 10/09 A3013 RMK A01 T00990091  RH  095%=      5-min Rain = 0
KHA2 231728Z 03015KT 10/09 A3013 RMK A01 T00990091  RH  095%=      5-min Rain = 0
KHA2 231729Z 03014KT 10/09 A3013 RMK A01 T00990090  RH  095%=      5-min Rain = 0
KHA2 231730Z 03013KT 10/09 A3013 RMK A01 T00990091  RH  095%=      5-min Rain = 0
KHA2 231731Z 03013KT 10/09 A3013 RMK A01 T00980091  RH  095%=      5-min Rain = 0
KHA2 231732Z 03013KT 10/09 A3013 RMK A01 T00990091  RH  095%=      5-min Rain = 0
KHA2 231733Z 03012KT 10/09 A3013 RMK A01 T00990092  RH  095%=      5-min Rain = 0
KHA2 231734Z 03011KT 10/09 A3013 RMK A01 T01000093  RH  095%=      5-min Rain = 0
KHA2 231735Z 03011KT 10/09 A3013 RMK A01 T01010094  RH  095%=      5-min Rain = 0
KHA2 231736Z 04014KT 10/09 A3013 RMK A01 T01020094  RH  095%=      5-min Rain = 0
KHA2 231737Z 04013KT 10/09 A3013 RMK A01 T01020093  RH  094%=      5-min Rain = 0
KHA2 231738Z 04016KT 10/09 A3013 RMK A01 T01030093  RH  094%=      5-min Rain = 0
KHA2 231739Z 04014KT 10/09 A3013 RMK A01 T01030092  RH  093%=      5-min Rain = 0
KHA2 231740Z 04013KT 10/09 A3013 RMK A01 T01030091  RH  092%=      5-min Rain = 0
KHA2 231741Z 04015KT 10/09 A3013 RMK A01 T01030091  RH  092%=      5-min Rain = 0
KHA2 231742Z 04014KT 10/09 A3012 RMK A01 T01030091  RH  092%=      5-min Rain = 0
KHA2 231743Z 04013KT 10/09 A3012 RMK A01 T01040093  RH  093%=      5-min Rain = 0
KHA2 231744Z 04015KT 10/09 A3012 RMK A01 T01040093  RH  093%=      5-min Rain = 0
KHA2 231745Z 04016KT 10/09 A3012 RMK A01 T01040092  RH  092%=      5-min Rain = 0
KHA2 231746Z 04015KT 10/09 A3012 RMK A01 T01030090  RH  092%=      5-min Rain = 0
KHA2 231747Z 04016KT 10/09 A3012 RMK A01 T01030090  RH  092%=      5-min Rain = 0
KHA2 231748Z 04014KT 10/09 A3012 RMK A01 T01030091  RH  092%=      5-min Rain = 0
KHA2 231749Z 03012KT 10/09 A3012 RMK A01 T01030091  RH  092%=      5-min Rain = 0
KHA2 231750Z 04014KT 10/09 A3012 RMK A01 T01040092  RH  093%=      5-min Rain = 0
KHA2 231751Z 03012KT 10/09 A3012 RMK A01 T01040092  RH  093%=      5-min Rain = 0
KHA2 231752Z 03014KT 10/09 A3012 RMK A01 T01040093  RH  093%=      5-min Rain = 0
KHA2 231753Z 03014KT 11/09 A3012 RMK A01 T01050093  RH  092%=      5-min Rain = 0
KHA2 231754Z 03015KT 10/09 A3012 RMK A01 T01040093  RH  092%=      5-min Rain = 0
KHA2 231755Z 04015KT 11/09 A3012 RMK A01 T01050092  RH  092%=      5-min Rain = 0
KHA2 231756Z 04013KT 10/09 A3012 RMK A01 T01040091  RH  092%=      5-min Rain = 0
KHA2 231757Z 03011KT 11/09 A3012 RMK A01 T01050092  RH  092%=      5-min Rain = 0
KHA2 231758Z 03012KT 11/09 A3012 RMK A01 T01050094  RH  093%=      5-min Rain = 0
KHA2 231759Z 03012KT 11/09 A3012 RMK A01 T01060094  RH  092%=      5-min Rain = 0
KHA2 231800Z 04014KT 11/09 A3012 RMK A01 T01060094  RH  092%=      5-min Rain = 0
KHA2 231801Z 04015KT 11/09 A3012 RMK A01 T01060092  RH  091%=      5-min Rain = 0
KHA2 231802Z 04013KT 11/09 A3012 RMK A01 T01050092  RH  091%=      5-min Rain = 0
KHA2 231803Z 04014KT 11/09 A3012 RMK A01 T01050092  RH  092%=      5-min Rain = 0
KHA2 231804Z 03016KT 11/09 A3012 RMK A01 T01050091  RH  091%=      5-min Rain = 0
KHA2 231805Z 04014KT 11/09 A3012 RMK A01 T01050090  RH  091%=      5-min Rain = 0
KHA2 231806Z 04014KT 11/09 A3012 RMK A01 T01050091  RH  091%=      5-min Rain = 0
KHA2 231807Z 04015KT 11/09 A3012 RMK A01 T01050092  RH  092%=      5-min Rain = 0
KHA2 231808Z 04015KT 11/09 A3012 RMK A01 T01050091  RH  092%=      5-min Rain = 0
KHA2 231809Z 03015KT 11/09 A3012 RMK A01 T01050090  RH  091%=      5-min Rain = 0
KHA2 231810Z 03014KT 11/09 A3012 RMK A01 T01050091  RH  091%=      5-min Rain = 0
KHA2 231811Z 02012KT 11/09 A3012 RMK A01 T01050091  RH  091%=      5-min Rain = 0
KHA2 231812Z 02013KT 11/09 A3012 RMK A01 T01050091  RH  091%=      5-min Rain = 0
KHA2 231813Z 04013KT 11/09 A3012 RMK A01 T01050091  RH  091%=      5-min Rain = 0
KHA2 231814Z 04014KT 10/09 A3012 RMK A01 T01040092  RH  092%=      5-min Rain = 0
KHA2 231815Z 03012KT 11/09 A3012 RMK A01 T01050092  RH  092%=      5-min Rain = 0
KHA2 231816Z 03012KT 11/09 A3012 RMK A01 T01050093  RH  093%=      5-min Rain = 0
KHA2 231817Z 03010KT 11/09 A3012 RMK A01 T01050093  RH  092%=      5-min Rain = 0
KHA2 231818Z 03011KT 11/09 A3012 RMK A01 T01050094  RH  093%=      5-min Rain = 0
KHA2 231819Z 04014KT 11/09 A3012 RMK A01 T01050093  RH  092%=      5-min Rain = 0
KHA2 231820Z 04014KT 11/09 A3012 RMK A01 T01050092  RH  092%=      5-min Rain = 0
KHA2 231821Z 03012KT 11/09 A3012 RMK A01 T01050092  RH  092%=      5-min Rain = 0
KHA2 231822Z 04012KT 10/09 A3012 RMK A01 T01040092  RH  092%=      5-min Rain = 0
KHA2 231823Z 04012KT 10/09 A3012 RMK A01 T01040092  RH  092%=      5-min Rain = 0
KHA2 231824Z 04013KT 11/09 A3012 RMK A01 T01050092  RH  092%=      5-min Rain = 0
KHA2 231825Z 04014KT 10/09 A3012 RMK A01 T01040091  RH  092%=      5-min Rain = 0
KHA2 231826Z 03013KT 10/09 A3012 RMK A01 T01040091  RH  092%=      5-min Rain = 0
KHA2 231827Z 02013KT 10/09 A3012 RMK A01 T01040091  RH  092%=      5-min Rain = 0
KHA2 231828Z 02012KT 10/09 A3012 RMK A01 T01040092  RH  092%=      5-min Rain = 0
KHA2 231829Z 03013KT 10/09 A3012 RMK A01 T01040091  RH  092%=      5-min Rain = 0
KHA2 231830Z 03012KT 10/09 A3012 RMK A01 T01040091  RH  092%=      5-min Rain = 0
KHA2 231831Z 03013KT 10/09 A3012 RMK A01 T01040091  RH  092%=      5-min Rain = 0
KHA2 231832Z 03010KT 10/09 A3012 RMK A01 T01040092  RH  092%=      5-min Rain = 0
KHA2 231833Z 04011KT 11/09 A3012 RMK A01 T01050093  RH  092%=      5-min Rain = 0
KHA2 231834Z 05012KT 11/09 A3012 RMK A01 T01050093  RH  092%=      5-min Rain = 0
KHA2 231835Z 05012KT 11/09 A3012 RMK A01 T01050092  RH  092%=      5-min Rain = 0
KHA2 231836Z 04012KT 11/09 A3012 RMK A01 T01050092  RH  092%=      5-min Rain = 0
KHA2 231837Z 04012KT 10/09 A3012 RMK A01 T01040092  RH  092%=      5-min Rain = 0
KHA2 231838Z 03012KT 10/09 A3012 RMK A01 T01040092  RH  092%=      5-min Rain = 0
KHA2 231839Z 03012KT 10/09 A3012 RMK A01 T01040092  RH  092%=      5-min Rain = 0
KHA2 231840Z 03012KT 10/09 A3012 RMK A01 T01040092  RH  092%=      5-min Rain = 0
KHA2 231841Z 04012KT 10/09 A3012 RMK A01 T01040090  RH  091%=      5-min Rain = 0
KHA2 231842Z 04013KT 10/09 A3012 RMK A01 T01040091  RH  092%=      5-min Rain = 0
KHA2 231843Z 03012KT 10/09 A3011 RMK A01 T01040091  RH  092%=      5-min Rain = 0
KHA2 231844Z 04011KT 10/09 A3011 RMK A01 T01040091  RH  092%=      5-min Rain = 0
KHA2 231845Z 04011KT 11/09 A3011 RMK A01 T01050093  RH  092%=      5-min Rain = 0
KHA2 231846Z 04014KT 11/09 A3011 RMK A01 T01050093  RH  092%=      5-min Rain = 0
KHA2 231847Z 04014KT 11/09 A3011 RMK A01 T01050091  RH  091%=      5-min Rain = 0
KHA2 231848Z 04014KT 10/09 A3011 RMK A01 T01040090  RH  091%=      5-min Rain = 0
KHA2 231849Z 04013KT 10/09 A3011 RMK A01 T01040091  RH  091%=      5-min Rain = 0
KHA2 231850Z 04010KT 10/09 A3011 RMK A01 T01040091  RH  092%=      5-min Rain = 0
KHA2 231851Z 04011KT 11/09 A3011 RMK A01 T01050092  RH  092%=      5-min Rain = 0
KHA2 231852Z 04013KT 11/09 A3011 RMK A01 T01050092  RH  092%=      5-min Rain = 0
KHA2 231853Z 05013KT 10/09 A3011 RMK A01 T01040091  RH  092%=      5-min Rain = 0
KHA2 231854Z 05012KT 10/09 A3011 RMK A01 T01040091  RH  092%=      5-min Rain = 0
KHA2 231855Z 05011KT 10/09 A3011 RMK A01 T01040091  RH  092%=      5-min Rain = 0
KHA2 231856Z 05012KT 10/09 A3011 RMK A01 T01040092  RH  092%=      5-min Rain = 0
KHA2 231857Z 05012KT 10/09 A3011 RMK A01 T01040092  RH  092%=      5-min Rain = 0
KHA2 231858Z 04010KT 11/09 A3011 RMK A01 T01050092  RH  092%=      5-min Rain = 0
KHA2 231859Z 03010KT 11/09 A3011 RMK A01 T01050093  RH  093%=      5-min Rain = 0
KHA2 231900Z 04010KT 11/10 A3011 RMK A01 T01050095  RH  093%=      5-min Rain = 0
KHA2 231901Z 04010KT 11/10 A3011 RMK A01 T01060095  RH  093%=      5-min Rain = 0
KHA2 231902Z 03012KT 11/10 A3011 RMK A01 T01060095  RH  093%=      5-min Rain = 0
KHA2 231903Z 02011KT 11/09 A3011 RMK A01 T01060094  RH  092%=      5-min Rain = 0
KHA2 231904Z 01011KT 11/09 A3011 RMK A01 T01060094  RH  093%=      5-min Rain = 0
KHA2 231905Z 02014KT 11/10 A3011 RMK A01 T01060095  RH  093%=      5-min Rain = 0
KHA2 231906Z 02014KT 11/09 A3011 RMK A01 T01050093  RH  092%=      5-min Rain = 0
KHA2 231907Z 02013KT 10/09 A3011 RMK A01 T01040093  RH  092%=      5-min Rain = 0
KHA2 231908Z 02013KT 10/09 A3011 RMK A01 T01040093  RH  093%=      5-min Rain = 0
KHA2 231909Z 03013KT 10/09 A3011 RMK A01 T01040094  RH  093%=      5-min Rain = 0
KHA2 231910Z 02014KT 10/09 A3011 RMK A01 T01040093  RH  093%=      5-min Rain = 0
KHA2 231911Z 03012KT 10/09 A3011 RMK A01 T01040093  RH  093%=      5-min Rain = 0
KHA2 231912Z 03013KT 10/09 A3011 RMK A01 T01040093  RH  093%=      5-min Rain = 0
KHA2 231913Z 02011KT 10/09 A3011 RMK A01 T01040094  RH  093%=      5-min Rain = 0
KHA2 231914Z 03011KT 11/10 A3011 RMK A01 T01050095  RH  094%=      5-min Rain = 0
KHA2 231915Z 04013KT 11/09 A3011 RMK A01 T01050094  RH  093%=      5-min Rain = 0
KHA2 231916Z 04014KT 11/09 A3011 RMK A01 T01060092  RH  092%=      5-min Rain = 0
KHA2 231917Z 04012KT 11/09 A3011 RMK A01 T01060092  RH  091%=      5-min Rain = 0
KHA2 231918Z 04014KT 11/09 A3011 RMK A01 T01060092  RH  091%=      5-min Rain = 0
KHA2 231919Z 03014KT 11/09 A3011 RMK A01 T01060092  RH  091%=      5-min Rain = 0
KHA2 231920Z 03015KT 11/09 A3011 RMK A01 T01060091  RH  091%=      5-min Rain = 0
KHA2 231921Z 03013KT 11/09 A3011 RMK A01 T01060091  RH  091%=      5-min Rain = 0
KHA2 231922Z 03012KT 11/09 A3011 RMK A01 T01060092  RH  091%=      5-min Rain = 0
KHA2 231923Z 03011KT 11/09 A3011 RMK A01 T01060092  RH  091%=      5-min Rain = 0
KHA2 231924Z 03014KT 11/09 A3011 RMK A01 T01060092  RH  091%=      5-min Rain = 0
KHA2 231925Z 03012KT 11/09 A3011 RMK A01 T01050091  RH  091%=      5-min Rain = 0
KHA2 231926Z 04014KT 11/09 A3011 RMK A01 T01050091  RH  091%=      5-min Rain = 0
KHA2 231927Z 02014KT 10/09 A3011 RMK A01 T01040091  RH  092%=      5-min Rain = 0
KHA2 231928Z 02013KT 10/09 A3011 RMK A01 T01040091  RH  092%=      5-min Rain = 0
KHA2 231929Z 03012KT 10/09 A3011 RMK A01 T01040092  RH  092%=      5-min Rain = 0
KHA2 231930Z 03012KT 10/09 A3011 RMK A01 T01040092  RH  093%=      5-min Rain = 0
KHA2 231931Z 03013KT 10/09 A3011 RMK A01 T01040092  RH  092%=      5-min Rain = 0
KHA2 231932Z 02013KT 10/09 A3011 RMK A01 T01040091  RH  092%=      5-min Rain = 0
KHA2 231933Z 02012KT 10/09 A3011 RMK A01 T01040091  RH  092%=      5-min Rain = 0
KHA2 231934Z 02012KT 10/09 A3011 RMK A01 T01040091  RH  092%=      5-min Rain = 0
KHA2 231935Z 02010KT 10/09 A3011 RMK A01 T01040091  RH  091%=      5-min Rain = 0
KHA2 231936Z 02011KT 11/09 A3011 RMK A01 T01050092  RH  092%=      5-min Rain = 0
KHA2 231937Z 02012KT 11/09 A3011 RMK A01 T01060093  RH  092%=      5-min Rain = 0
KHA2 231938Z 02013KT 11/09 A3011 RMK A01 T01060092  RH  091%=      5-min Rain = 0
KHA2 231939Z 03009KT 11/09 A3011 RMK A01 T01050091  RH  091%=      5-min Rain = 0
KHA2 231940Z 02012KT 11/09 A3011 RMK A01 T01050093  RH  092%=      5-min Rain = 0
KHA2 231941Z 02015KT 11/09 A3011 RMK A01 T01050092  RH  091%=      5-min Rain = 0
KHA2 231942Z 02014KT 11/09 A3011 RMK A01 T01050090  RH  091%=      5-min Rain = 0
KHA2 231943Z 02013KT 11/09 A3011 RMK A01 T01050090  RH  091%=      5-min Rain = 0
KHA2 231944Z 02013KT 11/09 A3011 RMK A01 T01050090  RH  091%=      5-min Rain = 0
KHA2 231945Z 03012KT 11/09 A3011 RMK A01 T01050089  RH  090%=      5-min Rain = 0
KHA2 231946Z 02012KT 11/09 A3011 RMK A01 T01060089  RH  089%=      5-min Rain = 0
KHA2 231947Z 02011KT 11/09 A3011 RMK A01 T01060089  RH  089%=      5-min Rain = 0
KHA2 231948Z 02012KT 11/09 A3011 RMK A01 T01080091  RH  089%=      5-min Rain = 0
KHA2 231949Z 02012KT 11/09 A3011 RMK A01 T01090091  RH  088%=      5-min Rain = 0
KHA2 231950Z 02010KT 11/09 A3011 RMK A01 T01110092  RH  088%=      5-min Rain = 0
KHA2 231951Z 02012KT 11/09 A3011 RMK A01 T01130091  RH  087%=      5-min Rain = 0
KHA2 231952Z 02012KT 11/09 A3011 RMK A01 T01130089  RH  085%=      5-min Rain = 0
KHA2 231953Z 02010KT 11/09 A3011 RMK A01 T01130089  RH  085%=      5-min Rain = 0
KHA2 231954Z 02010KT 12/09 A3011 RMK A01 T01160092  RH  085%=      5-min Rain = 0
KHA2 231955Z 03010KT 12/09 A3011 RMK A01 T01180091  RH  084%=      5-min Rain = 0
KHA2 231956Z 01010KT 12/09 A3011 RMK A01 T01180090  RH  082%=      5-min Rain = 0
KHA2 231957Z 01013KT 12/09 A3011 RMK A01 T01190089  RH  082%=      5-min Rain = 0
KHA2 231958Z 01014KT 12/09 A3011 RMK A01 T01190086  RH  080%=      5-min Rain = 0.01
KHA2 231959Z 01013KT 12/08 A3011 RMK A01 T01180084  RH  080%=      5-min Rain = 0
KHA2 232000Z 02013KT 12/09 A3011 RMK A01 T01170085  RH  081%=      5-min Rain = 0
KHA2 232001Z 02013KT 12/09 A3011 RMK A01 T01170087  RH  082%=      5-min Rain = 0
KHA2 232002Z 02011KT 12/09 A3011 RMK A01 T01180090  RH  083%=      5-min Rain = 0
KHA2 232003Z 03013KT 12/09 A3011 RMK A01 T01190087  RH  081%=      5-min Rain = 0
KHA2 232004Z 04013KT 12/09 A3011 RMK A01 T01190086  RH  080%=      5-min Rain = 0
KHA2 232005Z 02012KT 12/09 A3011 RMK A01 T01190085  RH  080%=      5-min Rain = 0
KHA2 232006Z 02011KT 12/09 A3011 RMK A01 T01190085  RH  079%=      5-min Rain = 0
KHA2 232007Z 01011KT 12/09 A3011 RMK A01 T01200085  RH  079%=      5-min Rain = 0
KHA2 232008Z 01010KT 12/09 A3011 RMK A01 T01220089  RH  080%=      5-min Rain = 0
KHA2 232009Z 02011KT 12/09 A301 RMK A01 T01220088  RH  080%=      5-min Rain = 0
KHA2 232010Z 03013KT 12/09 A3011 RMK A01 T01230089  RH  080%=      5-min Rain = 0
KHA2 232011Z 03012KT 12/09 A3011 RMK A01 T01230089  RH  080%=      5-min Rain = 0
KHA2 232012Z 03010KT 12/09 A3011 RMK A01 T01230086  RH  078%=      5-min Rain = 0
KHA2 232013Z 02009KT 12/09 A3011 RMK A01 T01230091  RH  081%=      5-min Rain = 0
KHA2 232014Z 02011KT 13/09 A3011 RMK A01 T01250088  RH  078%=      5-min Rain = 0
KHA2 232015Z 01012KT 13/09 A3011 RMK A01 T01250088  RH  078%=      5-min Rain = 0
KHA2 232016Z 02012KT 12/09 A3011 RMK A01 T01230085  RH  077%=      5-min Rain = 0
KHA2 232017Z 02013KT 12/08 A3011 RMK A01 T01220084  RH  077%=      5-min Rain = 0
KHA2 232018Z 03012KT 12/08 A3011 RMK A01 T01200083  RH  078%=      5-min Rain = 0
KHA2 232019Z 02014KT 12/08 A3011 RMK A01 T01190083  RH  079%=      5-min Rain = 0
KHA2 232020Z 01013KT 12/09 A3011 RMK A01 T01180085  RH  080%=      5-min Rain = 0
KHA2 232021Z 01012KT 12/09 A3011 RMK A01 T01170085  RH  080%=      5-min Rain = 0
KHA2 232022Z 01011KT 12/09 A3011 RMK A01 T01170087  RH  081%=      5-min Rain = 0
KHA2 232023Z 01013KT 12/09 A3011 RMK A01 T01190089  RH  082%=      5-min Rain = 0
KHA2 232024Z 02011KT 12/09 A3011 RMK A01 T01190089  RH  082%=      5-min Rain = 0
KHA2 232025Z 02012KT 12/09 A3011 RMK A01 T01190090  RH  083%=      5-min Rain = 0
KHA2 232026Z 01010KT 12/09 A3011 RMK A01 T01180089  RH  082%=      5-min Rain = 0
KHA2 232027Z 02014KT 12/09 A301 RMK A01 T01180088  RH  082%=      5-min Rain = 0
KHA2 232028Z 01014KT 12/09 A301 RMK A01 T01170086  RH  081%=      5-min Rain = 0
KHA2 232029Z 01013KT 12/08 A301 RMK A01 T01160084  RH  081%=      5-min Rain = 0
KHA2 232030Z 01011KT 12/09 A301 RMK A01 T01160085  RH  081%=      5-min Rain = 0
KHA2 232031Z 02011KT 12/09 A301 RMK A01 T01170085  RH  081%=      5-min Rain = 0
KHA2 232032Z 03009KT 12/08 A301 RMK A01 T01170083  RH  080%=      5-min Rain = 0
KHA2 232033Z 03010KT 12/09 A301 RMK A01 T01180086  RH  081%=      5-min Rain = 0
KHA2 232034Z 03012KT 12/09 A301 RMK A01 T01210089  RH  081%=      5-min Rain = 0
KHA2 232035Z 03012KT 12/09 A301 RMK A01 T01220086  RH  078%=      5-min Rain = 0
KHA2 232036Z 03012KT 12/09 A301 RMK A01 T01220085  RH  078%=      5-min Rain = 0
KHA2 232037Z 04011KT 12/09 A301 RMK A01 T01220086  RH  079%=      5-min Rain = 0
KHA2 232038Z 04012KT 12/09 A301 RMK A01 T01220085  RH  078%=      5-min Rain = 0
KHA2 232039Z 04011KT 12/09 A301 RMK A01 T01220085  RH  078%=      5-min Rain = 0
KHA2 232040Z 02012KT 12/09 A301 RMK A01 T01220086  RH  078%=      5-min Rain = 0
KHA2 232041Z 01010KT 12/08 A301 RMK A01 T01220082  RH  076%=      5-min Rain = 0
KHA2 232042Z 02010KT 12/09 A301 RMK A01 T01220085  RH  078%=      5-min Rain = 0
KHA2 232043Z 02012KT 12/08 A301 RMK A01 T01240082  RH  076%=      5-min Rain = 0
KHA2 232044Z 02011KT 12/08 A301 RMK A01 T01220079  RH  075%=      5-min Rain = 0
KHA2 232045Z 02009KT 12/08 A301 RMK A01 T01210078  RH  075%=      5-min Rain = 0
KHA2 232046Z 01009KT 12/08 A301 RMK A01 T01200082  RH  077%=      5-min Rain = 0
KHA2 232047Z 02009KT 12/08 A301 RMK A01 T01220084  RH  077%=      5-min Rain = 0
KHA2 232048Z 02010KT 12/08 A301 RMK A01 T01220081  RH  076%=      5-min Rain = 0
KHA2 232049Z 01011KT 12/08 A301 RMK A01 T01230083  RH  077%=      5-min Rain = 0
KHA2 232050Z 01010KT 12/08 A301 RMK A01 T01230079  RH  074%=      5-min Rain = 0
KHA2 232051Z 02008KT 12/08 A301 RMK A01 T01210076  RH  074%=      5-min Rain = 0
KHA2 232052Z 02008KT 12/08 A301 RMK A01 T01210079  RH  075%=      5-min Rain = 0
KHA2 232053Z 03009KT 12/08 A301 RMK A01 T01220083  RH  077%=      5-min Rain = 0
KHA2 232054Z 03012KT 12/08 A301 RMK A01 T01240079  RH  074%=      5-min Rain = 0
KHA2 232055Z 02013KT 12/07 A301 RMK A01 T01230074  RH  072%=      5-min Rain = 0
KHA2 232056Z 02010KT 12/08 A301 RMK A01 T01220075  RH  073%=      5-min Rain = 0
KHA2 232057Z 02012KT 12/08 A301 RMK A01 T01220075  RH  073%=      5-min Rain = 0
KHA2 232058Z 02012KT 12/07 A301 RMK A01 T01220073  RH  072%=      5-min Rain = 0
KHA2 232059Z 02010KT 12/07 A301 RMK A01 T01210073  RH  072%=      5-min Rain = 0
KHA2 232100Z 02010KT 12/07 A301 RMK A01 T01210072  RH  072%=      5-min Rain = 0
KHA2 232101Z 01009KT 12/07 A301 RMK A01 T01210073  RH  073%=      5-min Rain = 0
KHA2 232102Z 02011KT 12/08 A301 RMK A01 T01210077  RH  075%=      5-min Rain = 0
KHA2 232103Z 03008KT 12/08 A301 RMK A01 T01220077  RH  074%=      5-min Rain = 0
KHA2 232104Z 02009KT 12/08 A301 RMK A01 T01240079  RH  074%=      5-min Rain = 0
KHA2 232105Z 02009KT 13/08 A301 RMK A01 T01250080  RH  074%=      5-min Rain = 0
KHA2 232106Z 03011KT 13/08 A301 RMK A01 T01250077  RH  073%=      5-min Rain = 0
KHA2 232107Z 02012KT 12/08 A3009 RMK A01 T01240076  RH  072%=      5-min Rain = 0
KHA2 232108Z 02011KT 12/08 A301 RMK A01 T01230075  RH  073%=      5-min Rain = 0
KHA2 232109Z 01011KT 12/08 A301 RMK A01 T01230075  RH  073%=      5-min Rain = 0
KHA2 232110Z 02010KT 12/07 A301 RMK A01 T01220072  RH  071%=      5-min Rain = 0
KHA2 232111Z 01008KT 12/08 A3009 RMK A01 T01220077  RH  074%=      5-min Rain = 0
KHA2 232112Z 01009KT 12/08 A3009 RMK A01 T01230078  RH  074%=      5-min Rain = 0
KHA2 232113Z 02012KT 12/08 A3009 RMK A01 T01240078  RH  074%=      5-min Rain = 0
KHA2 232114Z 02012KT 12/08 A3009 RMK A01 T01240077  RH  073%=      5-min Rain = 0
KHA2 232115Z 02010KT 12/08 A3009 RMK A01 T01230075  RH  072%=      5-min Rain = 0
KHA2 232116Z 01010KT 12/08 A3009 RMK A01 T01230079  RH  075%=      5-min Rain = 0
KHA2 232117Z 36013KT 12/08 A3009 RMK A01 T01240082  RH  075%=      5-min Rain = 0
KHA2 232118Z 36012KT 12/08 A3009 RMK A01 T01240082  RH  075%=      5-min Rain = 0
KHA2 232119Z 00011KT 12/08 A3009 RMK A01 T01240082  RH  076%=      5-min Rain = 0
KHA2 232120Z 36012KT 13/08 A3009 RMK A01 T01250083  RH  076%=      5-min Rain = 0
KHA2 232121Z 36012KT 13/08 A3009 RMK A01 T01250081  RH  075%=      5-min Rain = 0
KHA2 232122Z 01012KT 13/08 A3009 RMK A01 T01250081  RH  075%=      5-min Rain = 0
KHA2 232123Z 01012KT 13/08 A3009 RMK A01 T01250081  RH  075%=      5-min Rain = 0
KHA2 232124Z 00012KT 13/08 A3009 RMK A01 T01250078  RH  073%=      5-min Rain = 0
KHA2 232125Z 01010KT 12/08 A3009 RMK A01 T01240078  RH  073%=      5-min Rain = 0
KHA2 232126Z 01010KT 12/08 A3009 RMK A01 T01240079  RH  074%=      5-min Rain = 0
KHA2 232127Z 01009KT 13/08 A3009 RMK A01 T01250082  RH  075%=      5-min Rain = 0
KHA2 232128Z 02011KT 13/08 A3009 RMK A01 T01270084  RH  075%=      5-min Rain = 0
KHA2 232129Z 01013KT 13/08 A3009 RMK A01 T01270081  RH  073%=      5-min Rain = 0
KHA2 232130Z 01012KT 13/08 A3009 RMK A01 T01260076  RH  072%=      5-min Rain = 0
KHA2 232131Z 02012KT 13/08 A3009 RMK A01 T01250077  RH  073%=      5-min Rain = 0
KHA2 232132Z 01011KT 12/08 A3009 RMK A01 T01240075  RH  072%=      5-min Rain = 0
KHA2 232133Z 02011KT 12/08 A3009 RMK A01 T01230077  RH  074%=      5-min Rain = 0
KHA2 232134Z 02009KT 12/08 A3009 RMK A01 T01230077  RH  073%=      5-min Rain = 0
KHA2 232135Z 02007KT 12/08 A3009 RMK A01 T01230077  RH  074%=      5-min Rain = 0
KHA2 232136Z 01008KT 12/08 A3009 RMK A01 T01240082  RH  076%=      5-min Rain = 0
KHA2 232137Z 01009KT 13/08 A3009 RMK A01 T01250082  RH  075%=      5-min Rain = 0
KHA2 232138Z 01011KT 13/08 A3009 RMK A01 T01260082  RH  075%=      5-min Rain = 0
KHA2 232139Z 02010KT 13/08 A3009 RMK A01 T01250079  RH  073%=      5-min Rain = 0
KHA2 232140Z 02011KT 12/08 A3009 RMK A01 T01240079  RH  074%=      5-min Rain = 0
KHA2 232141Z 02012KT 12/08 A3009 RMK A01 T01240078  RH  074%=      5-min Rain = 0
KHA2 232142Z 02009KT 12/08 A3009 RMK A01 T01240079  RH  074%=      5-min Rain = 0
KHA2 232143Z 02010KT 12/08 A3009 RMK A01 T01240080  RH  074%=      5-min Rain = 0
KHA2 232144Z 02009KT 12/08 A3009 RMK A01 T01240079  RH  074%=      5-min Rain = 0
KHA2 232145Z 02008KT 12/08 A3009 RMK A01 T01240079  RH  074%=      5-min Rain = 0
KHA2 232146Z 02009KT 12/08 A3009 RMK A01 T01240079  RH  074%=      5-min Rain = 0
KHA2 232147Z 03012KT 13/08 A3009 RMK A01 T01250082  RH  075%=      5-min Rain = 0
KHA2 232148Z 03011KT 13/08 A3009 RMK A01 T01260080  RH  074%=      5-min Rain = 0
KHA2 232149Z 03010KT 13/08 A3009 RMK A01 T01250080  RH  074%=      5-min Rain = 0
KHA2 232150Z 03010KT 13/08 A3009 RMK A01 T01250078  RH  073%=      5-min Rain = 0
KHA2 232151Z 02012KT 13/08 A3009 RMK A01 T01250079  RH  073%=      5-min Rain = 0
KHA2 232152Z 01012KT 13/08 A3009 RMK A01 T01250079  RH  074%=      5-min Rain = 0
KHA2 232153Z 01011KT 13/08 A3009 RMK A01 T01250079  RH  074%=      5-min Rain = 0
KHA2 232154Z 01009KT 13/08 A3009 RMK A01 T01250078  RH  073%=      5-min Rain = 0
KHA2 232155Z 02008KT 13/08 A3009 RMK A01 T01250079  RH  073%=      5-min Rain = 0
KHA2 232156Z 03010KT 13/08 A3009 RMK A01 T01250082  RH  075%=      5-min Rain = 0
KHA2 232157Z 02010KT 13/08 A3009 RMK A01 T01260082  RH  074%=      5-min Rain = 0
KHA2 232158Z 02010KT 13/08 A3009 RMK A01 T01270081  RH  074%=      5-min Rain = 0
KHA2 232159Z 01010KT 13/08 A3009 RMK A01 T01260081  RH  074%=      5-min Rain = 0
KHA2 232200Z 01010KT 13/08 A3009 RMK A01 T01260081  RH  074%=      5-min Rain = 0
KHA2 232201Z 36010KT 13/08 A3009 RMK A01 T01250079  RH  073%=      5-min Rain = 0
KHA2 232202Z 02010KT 13/08 A3009 RMK A01 T01250083  RH  075%=      5-min Rain = 0
KHA2 232203Z 02009KT 13/08 A3009 RMK A01 T01260083  RH  075%=      5-min Rain = 0
KHA2 232204Z 02008KT 13/08 A3009 RMK A01 T01270080  RH  073%=      5-min Rain = 0
KHA2 232205Z 03007KT 13/08 A3009 RMK A01 T01260083  RH  075%=      5-min Rain = 0
KHA2 232206Z 02011KT 13/08 A3009 RMK A01 T01270083  RH  075%=      5-min Rain = 0
KHA2 232207Z 02010KT 13/08 A3009 RMK A01 T01260079  RH  073%=      5-min Rain = 0
KHA2 232208Z 00009KT 13/08 A3009 RMK A01 T01250079  RH  074%=      5-min Rain = 0
KHA2 232209Z 00009KT 13/08 A3009 RMK A01 T01250081  RH  075%=      5-min Rain = 0
KHA2 232210Z 01012KT 13/08 A3009 RMK A01 T01250080  RH  074%=      5-min Rain = 0
KHA2 232211Z 01011KT 13/08 A3009 RMK A01 T01250080  RH  074%=      5-min Rain = 0
KHA2 232212Z 02009KT 12/08 A3009 RMK A01 T01240079  RH  074%=      5-min Rain = 0
KHA2 232213Z 01010KT 12/08 A3009 RMK A01 T01240080  RH  075%=      5-min Rain = 0
KHA2 232214Z 01010KT 12/08 A3009 RMK A01 T01240080  RH  075%=      5-min Rain = 0
KHA2 232215Z 02009KT 12/08 A3009 RMK A01 T01240082  RH  075%=      5-min Rain = 0
KHA2 232216Z 02010KT 12/08 A3009 RMK A01 T01240081  RH  075%=      5-min Rain = 0
KHA2 232217Z 01011KT 12/08 A3009 RMK A01 T01240082  RH  075%=      5-min Rain = 0
KHA2 232218Z 01010KT 12/08 A3009 RMK A01 T01240080  RH  074%=      5-min Rain = 0
KHA2 232219Z 36008KT 12/08 A3009 RMK A01 T01240078  RH  074%=      5-min Rain = 0
KHA2 232220Z 00011KT 12/08 A3009 RMK A01 T01230083  RH  076%=      5-min Rain = 0
KHA2 232221Z 01011KT 12/08 A3008 RMK A01 T01240081  RH  075%=      5-min Rain = 0
KHA2 232222Z 02010KT 12/08 A3009 RMK A01 T01240080  RH  074%=      5-min Rain = 0
KHA2 232223Z 02008KT 12/08 A3009 RMK A01 T01240082  RH  075%=      5-min Rain = 0
KHA2 232224Z 01010KT 13/08 A3009 RMK A01 T01250083  RH  076%=      5-min Rain = 0
KHA2 232225Z 01009KT 13/08 A3009 RMK A01 T01250084  RH  076%=      5-min Rain = 0
KHA2 232226Z 01009KT 13/08 A3009 RMK A01 T01250080  RH  074%=      5-min Rain = 0
KHA2 232227Z 02010KT 13/08 A3009 RMK A01 T01250080  RH  074%=      5-min Rain = 0
KHA2 232228Z 01010KT 13/08 A3009 RMK A01 T01250081  RH  075%=      5-min Rain = 0
KHA2 232229Z 01010KT 13/08 A3009 RMK A01 T01250082  RH  075%=      5-min Rain = 0
KHA2 232230Z 02011KT 13/08 A3009 RMK A01 T01250079  RH  074%=      5-min Rain = 0
KHA2 232231Z 02008KT 12/08 A3009 RMK A01 T01240080  RH  074%=      5-min Rain = 0
KHA2 232232Z 02009KT 12/08 A3009 RMK A01 T01240082  RH  075%=      5-min Rain = 0
KHA2 232233Z 03009KT 13/08 A3009 RMK A01 T01250080  RH  074%=      5-min Rain = 0
KHA2 232234Z 03009KT 12/08 A3009 RMK A01 T01240081  RH  075%=      5-min Rain = 0
KHA2 232235Z 03009KT 13/08 A3009 RMK A01 T01250081  RH  075%=      5-min Rain = 0
KHA2 232236Z 03010KT 12/08 A3008 RMK A01 T01240081  RH  075%=      5-min Rain = 0
KHA2 232237Z 03008KT 13/08 A3008 RMK A01 T01250082  RH  075%=      5-min Rain = 0
KHA2 232238Z 03009KT 13/08 A3008 RMK A01 T01250082  RH  075%=      5-min Rain = 0
KHA2 232239Z 02009KT 13/08 A3008 RMK A01 T01250083  RH  076%=      5-min Rain = 0
KHA2 232240Z 02010KT 13/08 A3008 RMK A01 T01250081  RH  074%=      5-min Rain = 0
KHA2 232241Z 03010KT 13/08 A3008 RMK A01 T01250080  RH  074%=      5-min Rain = 0
KHA2 232242Z 03009KT 13/08 A3008 RMK A01 T01250081  RH  075%=      5-min Rain = 0
KHA2 232243Z 02010KT 13/08 A3008 RMK A01 T01250083  RH  075%=      5-min Rain = 0
KHA2 232244Z 02010KT 13/08 A3008 RMK A01 T01250082  RH  075%=      5-min Rain = 0
KHA2 232245Z 02010KT 13/08 A3008 RMK A01 T01250081  RH  074%=      5-min Rain = 0
KHA2 232246Z 02010KT 13/08 A3008 RMK A01 T01250081  RH  074%=      5-min Rain = 0
KHA2 232247Z 02009KT 13/08 A3008 RMK A01 T01250082  RH  075%=      5-min Rain = 0
KHA2 232248Z 03010KT 13/08 A3008 RMK A01 T01250081  RH  074%=      5-min Rain = 0
KHA2 232249Z 03008KT 13/08 A3008 RMK A01 T01250081  RH  075%=      5-min Rain = 0
KHA2 232250Z 02010KT 13/08 A3008 RMK A01 T01250083  RH  076%=      5-min Rain = 0
KHA2 232251Z 03010KT 13/08 A3008 RMK A01 T01250083  RH  075%=      5-min Rain = 0
KHA2 232252Z 02009KT 13/08 A3008 RMK A01 T01260079  RH  073%=      5-min Rain = 0
KHA2 232253Z 02009KT 13/08 A3008 RMK A01 T01260081  RH  074%=      5-min Rain = 0
KHA2 232254Z 02008KT 13/08 A3008 RMK A01 T01250082  RH  075%=      5-min Rain = 0
KHA2 232255Z 01008KT 13/08 A3008 RMK A01 T01260084  RH  076%=      5-min Rain = 0
KHA2 232256Z 02008KT 13/09 A3008 RMK A01 T01270087  RH  076%=      5-min Rain = 0
KHA2 232257Z 03007KT 13/08 A3008 RMK A01 T01270084  RH  075%=      5-min Rain = 0
KHA2 232258Z 03011KT 13/09 A3008 RMK A01 T01270086  RH  076%=      5-min Rain = 0
KHA2 232259Z 02010KT 13/09 A3008 RMK A01 T01270086  RH  076%=      5-min Rain = 0
KHA2 232300Z 02010KT 13/09 A3008 RMK A01 T01260086  RH  077%=      5-min Rain = 0
KHA2 232301Z 02010KT 13/08 A3008 RMK A01 T01260084  RH  076%=      5-min Rain = 0
KHA2 232302Z 02008KT 13/08 A3008 RMK A01 T01260083  RH  075%=      5-min Rain = 0
KHA2 232303Z 01008KT 13/09 A3008 RMK A01 T01250085  RH  076%=      5-min Rain = 0
KHA2 232304Z 01009KT 13/08 A3008 RMK A01 T01260084  RH  076%=      5-min Rain = 0
KHA2 232305Z 01010KT 13/08 A3008 RMK A01 T01270084  RH  075%=      5-min Rain = 0
KHA2 232306Z 02009KT 13/09 A3008 RMK A01 T01260085  RH  076%=      5-min Rain = 0
KHA2 232307Z 03009KT 13/09 A3008 RMK A01 T01270085  RH  076%=      5-min Rain = 0
KHA2 232308Z 03009KT 13/08 A3008 RMK A01 T01270084  RH  075%=      5-min Rain = 0
KHA2 232309Z 03010KT 13/08 A3008 RMK A01 T01270083  RH  074%=      5-min Rain = 0
KHA2 232310Z 04009KT 13/08 A3008 RMK A01 T01260081  RH  074%=      5-min Rain = 0
KHA2 232311Z 02009KT 13/08 A3008 RMK A01 T01260084  RH  075%=      5-min Rain = 0
KHA2 232312Z 02010KT 13/08 A3008 RMK A01 T01260083  RH  075%=      5-min Rain = 0
KHA2 232313Z 02009KT 13/08 A3008 RMK A01 T01260081  RH  074%=      5-min Rain = 0
KHA2 232314Z 02009KT 13/08 A3008 RMK A01 T01260081  RH  074%=      5-min Rain = 0
KHA2 232315Z 02009KT 13/08 A3008 RMK A01 T01260080  RH  074%=      5-min Rain = 0
KHA2 232316Z 01008KT 13/08 A3008 RMK A01 T01250079  RH  073%=      5-min Rain = 0
KHA2 232317Z 03008KT 13/08 A3008 RMK A01 T01250081  RH  075%=      5-min Rain = 0
KHA2 232318Z 02008KT 13/08 A3008 RMK A01 T01260081  RH  074%=      5-min Rain = 0
KHA2 232319Z 02009KT 13/08 A3008 RMK A01 T01250081  RH  074%=      5-min Rain = 0
KHA2 232320Z 01009KT 13/08 A3008 RMK A01 T01260082  RH  075%=      5-min Rain = 0
KHA2 232321Z 01009KT 13/08 A3008 RMK A01 T01250083  RH  075%=      5-min Rain = 0
KHA2 232322Z 02007KT 13/08 A3008 RMK A01 T01250084  RH  076%=      5-min Rain = 0
KHA2 232323Z 03008KT 13/09 A3008 RMK A01 T01260086  RH  077%=      5-min Rain = 0
KHA2 232324Z 03008KT 13/09 A3008 RMK A01 T01260086  RH  076%=      5-min Rain = 0
KHA2 232325Z 03009KT 13/09 A3008 RMK A01 T01260087  RH  077%=      5-min Rain = 0
KHA2 232326Z 02009KT 13/09 A3008 RMK A01 T01270086  RH  076%=      5-min Rain = 0
KHA2 232327Z 02009KT 13/09 A3008 RMK A01 T01270085  RH  076%=      5-min Rain = 0
KHA2 232328Z 03008KT 13/09 A3008 RMK A01 T01260086  RH  076%=      5-min Rain = 0
KHA2 232329Z 03009KT 13/09 A3008 RMK A01 T01260085  RH  076%=      5-min Rain = 0
KHA2 232330Z 03010KT 13/08 A3008 RMK A01 T01270083  RH  075%=      5-min Rain = 0
KHA2 232331Z 03010KT 13/08 A3008 RMK A01 T01260083  RH  075%=      5-min Rain = 0
KHA2 232332Z 04009KT 13/08 A3008 RMK A01 T01260084  RH  075%=      5-min Rain = 0
KHA2 232333Z 04009KT 13/08 A3008 RMK A01 T01260083  RH  075%=      5-min Rain = 0
KHA2 232334Z 03009KT 13/09 A3008 RMK A01 T01260085  RH  076%=      5-min Rain = 0
KHA2 232335Z 02008KT 13/09 A3008 RMK A01 T01270086  RH  076%=      5-min Rain = 0
KHA2 232336Z 03008KT 13/09 A3008 RMK A01 T01270085  RH  075%=      5-min Rain = 0
KHA2 232337Z 02008KT 13/08 A3008 RMK A01 T01270084  RH  075%=      5-min Rain = 0
KHA2 232338Z 02007KT 13/09 A3008 RMK A01 T01270086  RH  076%=      5-min Rain = 0
KHA2 232339Z 02009KT 13/09 A3008 RMK A01 T01270085  RH  076%=      5-min Rain = 0
KHA2 232340Z 03008KT 13/09 A3008 RMK A01 T01270085  RH  075%=      5-min Rain = 0
KHA2 232341Z 02009KT 13/09 A3008 RMK A01 T01270085  RH  076%=      5-min Rain = 0
KHA2 232342Z 02008KT 13/09 A3008 RMK A01 T01270086  RH  076%=      5-min Rain = 0
KHA2 232343Z 02007KT 13/09 A3008 RMK A01 T01270086  RH  076%=      5-min Rain = 0
KHA2 232344Z 02008KT 13/09 A3008 RMK A01 T01270085  RH  076%=      5-min Rain = 0
KHA2 232345Z 03009KT 13/08 A3008 RMK A01 T01260084  RH  075%=      5-min Rain = 0
KHA2 232346Z 02008KT 13/08 A3008 RMK A01 T01260083  RH  075%=      5-min Rain = 0
KHA2 232347Z 02007KT 13/08 A3008 RMK A01 T01260083  RH  075%=      5-min Rain = 0
KHA2 232348Z 01008KT 13/09 A3008 RMK A01 T01250086  RH  077%=      5-min Rain = 0
KHA2 232349Z 01008KT 13/08 A3008 RMK A01 T01250084  RH  076%=      5-min Rain = 0
KHA2 232350Z 01007KT 13/08 A3008 RMK A01 T01260083  RH  075%=      5-min Rain = 0
KHA2 232351Z 01007KT 13/08 A3008 RMK A01 T01250084  RH  076%=      5-min Rain = 0
KHA2 232352Z 01007KT 13/08 A3008 RMK A01 T01250084  RH  076%=      5-min Rain = 0
KHA2 232353Z 02009KT 13/09 A3008 RMK A01 T01250085  RH  077%=      5-min Rain = 0
KHA2 232354Z 02008KT 13/09 A3008 RMK A01 T01250085  RH  077%=      5-min Rain = 0
KHA2 232355Z 02008KT 13/09 A3008 RMK A01 T01250087  RH  077%=      5-min Rain = 0
KHA2 232356Z 02009KT 13/08 A3008 RMK A01 T01250084  RH  076%=      5-min Rain = 0
KHA2 232357Z 02008KT 13/08 A3008 RMK A01 T01250084  RH  076%=      5-min Rain = 0
KHA2 232358Z 03009KT 13/09 A3008 RMK A01 T01250085  RH  077%=      5-min Rain = 0
KHA2 232359Z 01009KT 13/08 A3008 RMK A01 T01250084  RH  076%=      5-min Rain = 0
KHA2 240000Z 02009KT 12/08 A3008 RMK A01 T01240083  RH  076%=      5-min Rain = 0
KHA2 240001Z 01010KT 12/09 A3008 RMK A01 T01240085  RH  077%=      5-min Rain = 0
KHA2 240002Z 01009KT 12/08 A3008 RMK A01 T01240084  RH  076%=      5-min Rain = 0
KHA2 240003Z 02008KT 12/08 A3008 RMK A01 T01240083  RH  076%=      5-min Rain = 0
KHA2 240004Z 01008KT 12/09 A3008 RMK A01 T01240085  RH  077%=      5-min Rain = 0
KHA2 240005Z 00011KT 12/09 A3007 RMK A01 T01240085  RH  077%=      5-min Rain = 0
KHA2 240006Z 01009KT 12/08 A3007 RMK A01 T01240084  RH  076%=      5-min Rain = 0
KHA2 240007Z 01011KT 12/08 A3007 RMK A01 T01240084  RH  077%=      5-min Rain = 0
KHA2 240008Z 01010KT 12/08 A3008 RMK A01 T01240084  RH  076%=      5-min Rain = 0
KHA2 240009Z 01007KT 12/09 A3008 RMK A01 T01240085  RH  077%=      5-min Rain = 0
KHA2 240010Z 01008KT 12/09 A3008 RMK A01 T01240087  RH  078%=      5-min Rain = 0
KHA2 240011Z 01009KT 12/08 A3008 RMK A01 T01240084  RH  077%=      5-min Rain = 0
KHA2 240012Z 01007KT 12/08 A3008 RMK A01 T01240084  RH  077%=      5-min Rain = 0
KHA2 240013Z 00009KT 12/09 A3008 RMK A01 T01240085  RH  077%=      5-min Rain = 0
KHA2 240014Z 00009KT 12/08 A3008 RMK A01 T01240084  RH  077%=      5-min Rain = 0
KHA2 240015Z 01008KT 12/09 A3008 RMK A01 T01240085  RH  077%=      5-min Rain = 0
KHA2 240016Z 01007KT 12/09 A3008 RMK A01 T01240085  RH  077%=      5-min Rain = 0
KHA2 240017Z 02007KT 12/09 A3008 RMK A01 T01240086  RH  078%=      5-min Rain = 0
KHA2 240018Z 01008KT 12/09 A3007 RMK A01 T01240085  RH  077%=      5-min Rain = 0
KHA2 240019Z 01008KT 12/08 A3007 RMK A01 T01240082  RH  076%=      5-min Rain = 0
KHA2 240020Z 02008KT 12/08 A3007 RMK A01 T01240082  RH  076%=      5-min Rain = 0
KHA2 240021Z 02009KT 12/08 A3007 RMK A01 T01240082  RH  076%=      5-min Rain = 0
KHA2 240022Z 02009KT 12/08 A3007 RMK A01 T01240082  RH  076%=      5-min Rain = 0
KHA2 240023Z 01009KT 12/08 A3007 RMK A01 T01240081  RH  075%=      5-min Rain = 0
KHA2 240024Z 01008KT 12/08 A3007 RMK A01 T01240081  RH  075%=      5-min Rain = 0
KHA2 240025Z 02008KT 12/08 A3007 RMK A01 T01240081  RH  075%=      5-min Rain = 0
KHA2 240026Z 01008KT 12/08 A3007 RMK A01 T01240082  RH  075%=      5-min Rain = 0
KHA2 240027Z 01007KT 12/08 A3007 RMK A01 T01240083  RH  076%=      5-min Rain = 0
KHA2 240028Z 02007KT 12/08 A3007 RMK A01 T01240084  RH  076%=      5-min Rain = 0
KHA2 240029Z 02007KT 12/08 A3007 RMK A01 T01240083  RH  076%=      5-min Rain = 0
KHA2 240030Z 02006KT 12/08 A3007 RMK A01 T01240083  RH  076%=      5-min Rain = 0
KHA2 240031Z 03007KT 12/08 A3007 RMK A01 T01240083  RH  076%=      5-min Rain = 0
KHA2 240032Z 02006KT 12/08 A3007 RMK A01 T01240084  RH  076%=      5-min Rain = 0
KHA2 240033Z 03005KT 12/08 A3007 RMK A01 T01240084  RH  077%=      5-min Rain = 0
KHA2 240034Z 02006KT 12/09 A3007 RMK A01 T01240085  RH  077%=      5-min Rain = 0
KHA2 240035Z 02007KT 12/08 A3007 RMK A01 T01240083  RH  076%=      5-min Rain = 0
KHA2 240036Z 03008KT 12/08 A3007 RMK A01 T01240081  RH  075%=      5-min Rain = 0
KHA2 240037Z 02007KT 12/08 A3007 RMK A01 T01240081  RH  075%=      5-min Rain = 0
KHA2 240038Z 02009KT 12/08 A3007 RMK A01 T01240081  RH  075%=      5-min Rain = 0
KHA2 240039Z 02008KT 12/08 A3007 RMK A01 T01240081  RH  075%=      5-min Rain = 0
KHA2 240040Z 02008KT 12/08 A3007 RMK A01 T01240082  RH  075%=      5-min Rain = 0
KHA2 240041Z 03008KT 12/08 A3007 RMK A01 T01240081  RH  075%=      5-min Rain = 0
KHA2 240042Z 03006KT 12/08 A3007 RMK A01 T01240083  RH  076%=      5-min Rain = 0
KHA2 240043Z 03006KT 12/08 A3007 RMK A01 T01240084  RH  077%=      5-min Rain = 0
KHA2 240044Z 03007KT 12/08 A3007 RMK A01 T01240084  RH  076%=      5-min Rain = 0
KHA2 240045Z 03007KT 12/08 A3007 RMK A01 T01240083  RH  076%=      5-min Rain = 0
KHA2 240046Z 03006KT 12/08 A3007 RMK A01 T01240083  RH  076%=      5-min Rain = 0
KHA2 240047Z 03008KT 12/08 A3007 RMK A01 T01240084  RH  076%=      5-min Rain = 0
KHA2 240048Z 03008KT 12/08 A3007 RMK A01 T01240082  RH  075%=      5-min Rain = 0
KHA2 240049Z 03008KT 12/08 A3007 RMK A01 T01240082  RH  075%=      5-min Rain = 0
KHA2 240050Z 03007KT 12/08 A3007 RMK A01 T01240082  RH  076%=      5-min Rain = 0
KHA2 240051Z 03007KT 12/08 A3007 RMK A01 T01240084  RH  076%=      5-min Rain = 0
KHA2 240052Z 03006KT 12/08 A3007 RMK A01 T01240083  RH  076%=      5-min Rain = 0
KHA2 240053Z 03007KT 12/09 A3007 RMK A01 T01240086  RH  077%=      5-min Rain = 0
KHA2 240054Z 03007KT 12/08 A3007 RMK A01 T01240083  RH  076%=      5-min Rain = 0
KHA2 240055Z 03007KT 12/08 A3007 RMK A01 T01240083  RH  076%=      5-min Rain = 0
KHA2 240056Z 03007KT 12/08 A3007 RMK A01 T01240084  RH  077%=      5-min Rain = 0
KHA2 240057Z 03007KT 12/08 A3007 RMK A01 T01240083  RH  076%=      5-min Rain = 0
KHA2 240058Z 03006KT 12/08 A3007 RMK A01 T01240084  RH  077%=      5-min Rain = 0
KHA2 240059Z 03007KT 12/08 A3007 RMK A01 T01240084  RH  077%=      5-min Rain = 0
KHA2 240100Z 02006KT 12/08 A3007 RMK A01 T01240084  RH  077%=      5-min Rain = 0
KHA2 240101Z 03007KT 12/09 A3007 RMK A01 T01240085  RH  077%=      5-min Rain = 0
KHA2 240102Z 03007KT 12/08 A3007 RMK A01 T01230084  RH  077%=      5-min Rain = 0
KHA2 240103Z 03008KT 12/08 A3007 RMK A01 T01230082  RH  076%=      5-min Rain = 0
KHA2 240104Z 03008KT 12/08 A3007 RMK A01 T01230078  RH  074%=      5-min Rain = 0
KHA2 240105Z 02008KT 12/08 A3007 RMK A01 T01230080  RH  075%=      5-min Rain = 0
KHA2 240106Z 02007KT 12/08 A3007 RMK A01 T01230081  RH  075%=      5-min Rain = 0
KHA2 240107Z 02007KT 12/08 A3007 RMK A01 T01230082  RH  076%=      5-min Rain = 0
KHA2 240108Z 02007KT 12/08 A3007 RMK A01 T01230082  RH  076%=      5-min Rain = 0
KHA2 240109Z 02008KT 12/08 A3007 RMK A01 T01230081  RH  076%=      5-min Rain = 0
KHA2 240110Z 02008KT 12/08 A3006 RMK A01 T01230080  RH  075%=      5-min Rain = 0
KHA2 240111Z 02008KT 12/08 A3006 RMK A01 T01230079  RH  074%=      5-min Rain = 0
KHA2 240112Z 02007KT 12/08 A3006 RMK A01 T01230079  RH  074%=      5-min Rain = 0
KHA2 240113Z 02008KT 12/08 A3006 RMK A01 T01230080  RH  075%=      5-min Rain = 0
KHA2 240114Z 02008KT 12/08 A3006 RMK A01 T01230080  RH  075%=      5-min Rain = 0
KHA2 240115Z 02008KT 12/08 A3006 RMK A01 T01230080  RH  075%=      5-min Rain = 0
KHA2 240116Z 02009KT 12/08 A3006 RMK A01 T01220078  RH  075%=      5-min Rain = 0
KHA2 240117Z 02008KT 12/08 A3006 RMK A01 T01220078  RH  074%=      5-min Rain = 0
KHA2 240118Z 02008KT 12/08 A3006 RMK A01 T01220078  RH  074%=      5-min Rain = 0
KHA2 240119Z 02009KT 12/08 A3006 RMK A01 T01220079  RH  075%=      5-min Rain = 0
KHA2 240120Z 02008KT 12/08 A3006 RMK A01 T01220078  RH  074%=      5-min Rain = 0
KHA2 240121Z 01007KT 12/08 A3006 RMK A01 T01220079  RH  075%=      5-min Rain = 0
KHA2 240122Z 01007KT 12/08 A3006 RMK A01 T01220081  RH  076%=      5-min Rain = 0
KHA2 240123Z 01008KT 12/08 A3006 RMK A01 T01210081  RH  076%=      5-min Rain = 0
KHA2 240124Z 01008KT 12/08 A3006 RMK A01 T01210079  RH  075%=      5-min Rain = 0
KHA2 240125Z 01008KT 12/08 A3006 RMK A01 T01210079  RH  076%=      5-min Rain = 0
KHA2 240126Z 01007KT 12/08 A3006 RMK A01 T01210078  RH  075%=      5-min Rain = 0
KHA2 240127Z 01008KT 12/08 A3006 RMK A01 T01210077  RH  075%=      5-min Rain = 0
KHA2 240128Z 01007KT 12/08 A3006 RMK A01 T01200077  RH  074%=      5-min Rain = 0
KHA2 240129Z 01008KT 12/08 A3006 RMK A01 T01200078  RH  075%=      5-min Rain = 0
KHA2 240130Z 01007KT 12/08 A3006 RMK A01 T01200078  RH  075%=      5-min Rain = 0
KHA2 240131Z 00007KT 12/08 A3006 RMK A01 T01200079  RH  076%=      5-min Rain = 0
KHA2 240132Z 00008KT 12/08 A3006 RMK A01 T01190079  RH  076%=      5-min Rain = 0
KHA2 240133Z 01007KT 12/08 A3006 RMK A01 T01190077  RH  076%=      5-min Rain = 0
KHA2 240134Z 01008KT 12/08 A3006 RMK A01 T01190078  RH  076%=      5-min Rain = 0
KHA2 240135Z 00007KT 12/08 A3006 RMK A01 T01190079  RH  077%=      5-min Rain = 0
KHA2 240136Z 00008KT 12/08 A3006 RMK A01 T01180079  RH  077%=      5-min Rain = 0
KHA2 240137Z 00008KT 12/08 A3006 RMK A01 T01180078  RH  077%=      5-min Rain = 0
KHA2 240138Z 00008KT 12/08 A3006 RMK A01 T01170078  RH  077%=      5-min Rain = 0
KHA2 240139Z 00009KT 12/08 A3006 RMK A01 T01170078  RH  077%=      5-min Rain = 0
KHA2 240140Z 00009KT 12/08 A3006 RMK A01 T01170077  RH  077%=      5-min Rain = 0
KHA2 240141Z 00008KT 12/08 A3006 RMK A01 T01170077  RH  076%=      5-min Rain = 0
KHA2 240142Z 01008KT 12/08 A3006 RMK A01 T01170078  RH  077%=      5-min Rain = 0
KHA2 240143Z 00008KT 12/08 A3006 RMK A01 T01170078  RH  077%=      5-min Rain = 0
KHA2 240144Z 00007KT 12/08 A3006 RMK A01 T01160079  RH  078%=      5-min Rain = 0
KHA2 240145Z 36007KT 12/08 A3006 RMK A01 T01160079  RH  078%=      5-min Rain = 0
KHA2 240146Z 00008KT 12/08 A3006 RMK A01 T01160080  RH  079%=      5-min Rain = 0
KHA2 240147Z 00008KT 12/08 A3006 RMK A01 T01150079  RH  079%=      5-min Rain = 0
KHA2 240148Z 00008KT 12/08 A3006 RMK A01 T01150079  RH  079%=      5-min Rain = 0
KHA2 240149Z 00008KT 12/08 A3006 RMK A01 T01150079  RH  078%=      5-min Rain = 0
KHA2 240150Z 01008KT 12/08 A3006 RMK A01 T01150078  RH  078%=      5-min Rain = 0
KHA2 240151Z 00008KT 12/08 A3006 RMK A01 T01150077  RH  078%=      5-min Rain = 0
KHA2 240152Z 00007KT 12/08 A3006 RMK A01 T01150078  RH  078%=      5-min Rain = 0
KHA2 240153Z 36007KT 12/08 A3006 RMK A01 T01150078  RH  078%=      5-min Rain = 0
KHA2 240154Z 00007KT 12/08 A3006 RMK A01 T01150078  RH  078%=      5-min Rain = 0
KHA2 240155Z 36007KT 12/08 A3006 RMK A01 T01150078  RH  078%=      5-min Rain = 0
KHA2 240156Z 36007KT 12/08 A3006 RMK A01 T01150078  RH  078%=      5-min Rain = 0
KHA2 240157Z 36007KT 12/08 A3006 RMK A01 T01150078  RH  078%=      5-min Rain = 0
KHA2 240158Z 36007KT 11/08 A3006 RMK A01 T01140078  RH  078%=      5-min Rain = 0
KHA2 240159Z 35006KT 11/08 A3006 RMK A01 T01140077  RH  078%=      5-min Rain = 0
KHA2 240200Z 36006KT 11/08 A3006 RMK A01 T01140078  RH  078%=      5-min Rain = 0
KHA2 240201Z 35006KT 11/08 A3006 RMK A01 T01140079  RH  079%=      5-min Rain = 0
KHA2 240202Z 35006KT 11/08 A3007 RMK A01 T01140079  RH  079%=      5-min Rain = 0
KHA2 240203Z 35007KT 11/08 A3007 RMK A01 T01130079  RH  079%=      5-min Rain = 0
KHA2 240204Z 35006KT 11/08 A3007 RMK A01 T01130079  RH  080%=      5-min Rain = 0
KHA2 240205Z 35006KT 11/08 A3007 RMK A01 T01120079  RH  080%=      5-min Rain = 0
KHA2 240206Z 35007KT 11/08 A3007 RMK A01 T01120079  RH  080%=      5-min Rain = 0
KHA2 240207Z 36006KT 11/08 A3007 RMK A01 T01110078  RH  080%=      5-min Rain = 0
KHA2 240208Z 36007KT 11/08 A3007 RMK A01 T01110077  RH  080%=      5-min Rain = 0
KHA2 240209Z 36006KT 11/08 A3007 RMK A01 T01110077  RH  080%=      5-min Rain = 0
KHA2 240210Z 00006KT 11/08 A3007 RMK A01 T01100076  RH  079%=      5-min Rain = 0
KHA2 240211Z 00006KT 11/08 A3007 RMK A01 T01100075  RH  079%=      5-min Rain = 0
KHA2 240212Z 01006KT 11/08 A3007 RMK A01 T01100075  RH  079%=      5-min Rain = 0
KHA2 240213Z 01005KT 11/07 A3007 RMK A01 T01090074  RH  079%=      5-min Rain = 0
KHA2 240214Z 01006KT 11/08 A3008 RMK A01 T01090075  RH  079%=      5-min Rain = 0
KHA2 240215Z 01006KT 11/07 A3008 RMK A01 T01080074  RH  080%=      5-min Rain = 0
KHA2 240216Z 01007KT 11/07 A3008 RMK A01 T01070074  RH  080%=      5-min Rain = 0
KHA2 240217Z 01006KT 11/07 A3008 RMK A01 T01070074  RH  080%=      5-min Rain = 0
KHA2 240218Z 01007KT 11/07 A3008 RMK A01 T01070074  RH  080%=      5-min Rain = 0
KHA2 240219Z 01006KT 11/08 A3008 RMK A01 T01070075  RH  081%=      5-min Rain = 0
KHA2 240220Z 01007KT 11/08 A3008 RMK A01 T01060075  RH  081%=      5-min Rain = 0
KHA2 240221Z 01006KT 11/07 A3008 RMK A01 T01060074  RH  081%=      5-min Rain = 0
KHA2 240222Z 01007KT 11/07 A3007 RMK A01 T01060074  RH  080%=      5-min Rain = 0
KHA2 240223Z 01007KT 11/07 A3007 RMK A01 T01070073  RH  080%=      5-min Rain = 0
KHA2 240224Z 01008KT 11/07 A3007 RMK A01 T01070073  RH  080%=      5-min Rain = 0
KHA2 240225Z 01007KT 11/07 A3007 RMK A01 T01070073  RH  079%=      5-min Rain = 0
KHA2 240226Z 01008KT 11/07 A3007 RMK A01 T01080073  RH  079%=      5-min Rain = 0
KHA2 240227Z 01008KT 11/07 A3007 RMK A01 T01080073  RH  079%=      5-min Rain = 0
KHA2 240228Z 01008KT 11/07 A3007 RMK A01 T01080073  RH  079%=      5-min Rain = 0
KHA2 240229Z 01009KT 11/07 A3007 RMK A01 T01080072  RH  079%=      5-min Rain = 0
KHA2 240230Z 01007KT 11/07 A3007 RMK A01 T01080072  RH  079%=      5-min Rain = 0
KHA2 240231Z 01007KT 11/07 A3007 RMK A01 T01080072  RH  079%=      5-min Rain = 0
KHA2 240232Z 01006KT 11/07 A3007 RMK A01 T01080073  RH  079%=      5-min Rain = 0
KHA2 240233Z 01006KT 11/07 A3007 RMK A01 T01070074  RH  080%=      5-min Rain = 0
KHA2 240234Z 01006KT 11/07 A3007 RMK A01 T01070074  RH  080%=      5-min Rain = 0
KHA2 240235Z 01006KT 11/07 A3007 RMK A01 T01070074  RH  080%=      5-min Rain = 0
KHA2 240236Z 02006KT 11/07 A3007 RMK A01 T01060074  RH  081%=      5-min Rain = 0
KHA2 240237Z 02006KT 11/07 A3007 RMK A01 T01060074  RH  081%=      5-min Rain = 0
KHA2 240238Z 02007KT 11/08 A3007 RMK A01 T01060075  RH  081%=      5-min Rain = 0
KHA2 240239Z 02006KT 11/08 A3007 RMK A01 T01060075  RH  081%=      5-min Rain = 0
KHA2 240240Z 01007KT 11/08 A3007 RMK A01 T01060075  RH  081%=      5-min Rain = 0
KHA2 240241Z 01007KT 11/07 A3007 RMK A01 T01060074  RH  080%=      5-min Rain = 0
KHA2 240242Z 02007KT 11/07 A3007 RMK A01 T01060074  RH  081%=      5-min Rain = 0
KHA2 240243Z 02007KT 11/08 A3007 RMK A01 T01060076  RH  081%=      5-min Rain = 0
KHA2 240244Z 02007KT 11/08 A3007 RMK A01 T01060076  RH  082%=      5-min Rain = 0
KHA2 240245Z 01006KT 11/08 A3007 RMK A01 T01060075  RH  081%=      5-min Rain = 0
KHA2 240246Z 02006KT 11/08 A3007 RMK A01 T01060075  RH  081%=      5-min Rain = 0
KHA2 240247Z 02007KT 11/08 A3007 RMK A01 T01060076  RH  082%=      5-min Rain = 0
KHA2 240248Z 02007KT 11/08 A3006 RMK A01 T01060075  RH  081%=      5-min Rain = 0
KHA2 240249Z 02006KT 11/08 A3006 RMK A01 T01060076  RH  082%=      5-min Rain = 0
KHA2 240250Z 02006KT 11/08 A3006 RMK A01 T01050076  RH  082%=      5-min Rain = 0
KHA2 240251Z 02006KT 11/08 A3006 RMK A01 T01050076  RH  082%=      5-min Rain = 0
KHA2 240252Z 02006KT 10/08 A3006 RMK A01 T01040076  RH  083%=      5-min Rain = 0
KHA2 240253Z 03006KT 10/08 A3006 RMK A01 T01030076  RH  083%=      5-min Rain = 0
KHA2 240254Z 03006KT 10/08 A3006 RMK A01 T01030076  RH  083%=      5-min Rain = 0
KHA2 240255Z 03006KT 10/08 A3006 RMK A01 T01020076  RH  084%=      5-min Rain = 0
KHA2 240256Z 03006KT 10/08 A3006 RMK A01 T01010076  RH  084%=      5-min Rain = 0
KHA2 240257Z 03007KT 10/08 A3006 RMK A01 T01000076  RH  085%=      5-min Rain = 0
KHA2 240258Z 03008KT 10/08 A3006 RMK A01 T01000076  RH  085%=      5-min Rain = 0
KHA2 240259Z 03006KT 10/08 A3006 RMK A01 T01000075  RH  085%=      5-min Rain = 0
KHA2 240300Z 03007KT 10/08 A3006 RMK A01 T00990075  RH  085%=      5-min Rain = 0
KHA2 240301Z 03007KT 10/08 A3006 RMK A01 T00990075  RH  085%=      5-min Rain = 0
KHA2 240302Z 03007KT 10/08 A3006 RMK A01 T00990075  RH  085%=      5-min Rain = 0
KHA2 240303Z 03006KT 10/08 A3006 RMK A01 T00990075  RH  085%=      5-min Rain = 0
KHA2 240304Z 02006KT 10/08 A3006 RMK A01 T00980075  RH  085%=      5-min Rain = 0
KHA2 240305Z 02006KT 10/08 A3006 RMK A01 T00970075  RH  086%=      5-min Rain = 0
KHA2 240306Z 02006KT 10/08 A3006 RMK A01 T00970075  RH  086%=      5-min Rain = 0
KHA2 240307Z 02006KT 10/07 A3006 RMK A01 T00960074  RH  087%=      5-min Rain = 0
KHA2 240308Z 02006KT 10/07 A3007 RMK A01 T00950074  RH  087%=      5-min Rain = 0
KHA2 240309Z 03006KT 10/07 A3007 RMK A01 T00950073  RH  086%=      5-min Rain = 0
KHA2 240310Z 03006KT 10/07 A3007 RMK A01 T00960073  RH  086%=      5-min Rain = 0
KHA2 240311Z 03005KT 10/07 A3007 RMK A01 T00960073  RH  085%=      5-min Rain = 0
KHA2 240312Z 03005KT 10/07 A3007 RMK A01 T00960073  RH  085%=      5-min Rain = 0
KHA2 240313Z 03006KT 10/07 A3007 RMK A01 T00960072  RH  085%=      5-min Rain = 0
KHA2 240314Z 02006KT 10/07 A3007 RMK A01 T00960071  RH  085%=      5-min Rain = 0
KHA2 240315Z 03006KT 10/07 A3007 RMK A01 T00960071  RH  085%=      5-min Rain = 0
KHA2 240316Z 03006KT 10/07 A3007 RMK A01 T00950071  RH  085%=      5-min Rain = 0
KHA2 240317Z 02006KT 09/07 A3007 RMK A01 T00940070  RH  085%=      5-min Rain = 0
KHA2 240318Z 02006KT 09/07 A3007 RMK A01 T00940070  RH  085%=      5-min Rain = 0
KHA2 240319Z 02006KT 09/07 A3007 RMK A01 T00920069  RH  085%=      5-min Rain = 0
KHA2 240320Z 02006KT 09/07 A3007 RMK A01 T00920069  RH  086%=      5-min Rain = 0
KHA2 240321Z 02006KT 09/07 A3007 RMK A01 T00910068  RH  086%=      5-min Rain = 0
KHA2 240322Z 02006KT 09/07 A3007 RMK A01 T00910068  RH  086%=      5-min Rain = 0
KHA2 240323Z 02006KT 09/07 A3007 RMK A01 T00900068  RH  086%=      5-min Rain = 0
KHA2 240324Z 02007KT 09/07 A3007 RMK A01 T00900068  RH  086%=      5-min Rain = 0
KHA2 240325Z 02006KT 09/07 A3007 RMK A01 T00910068  RH  086%=      5-min Rain = 0
KHA2 240326Z 02006KT 09/07 A3007 RMK A01 T00920068  RH  085%=      5-min Rain = 0
KHA2 240327Z 03005KT 09/07 A3007 RMK A01 T00920068  RH  085%=      5-min Rain = 0
KHA2 240328Z 03005KT 09/07 A3007 RMK A01 T00930068  RH  085%=      5-min Rain = 0
KHA2 240329Z 03005KT 09/07 A3007 RMK A01 T00930069  RH  085%=      5-min Rain = 0
KHA2 240330Z 02004KT 09/07 A3007 RMK A01 T00920068  RH  085%=      5-min Rain = 0
KHA2 240331Z 01004KT 09/07 A3007 RMK A01 T00910068  RH  086%=      5-min Rain = 0
KHA2 240332Z 35004KT 09/07 A3008 RMK A01 T00890068  RH  086%=      5-min Rain = 0
KHA2 240333Z 35004KT 09/07 A3008 RMK A01 T00880068  RH  087%=      5-min Rain = 0
KHA2 240334Z 35004KT 09/07 A3008 RMK A01 T00860068  RH  088%=      5-min Rain = 0
KHA2 240335Z 35004KT 09/07 A3008 RMK A01 T00850067  RH  089%=      5-min Rain = 0
KHA2 240336Z 36004KT 08/07 A3008 RMK A01 T00840067  RH  089%=      5-min Rain = 0
KHA2 240337Z 00004KT 08/07 A3008 RMK A01 T00840066  RH  089%=      5-min Rain = 0
KHA2 240338Z 00004KT 08/07 A3008 RMK A01 T00830066  RH  089%=      5-min Rain = 0
KHA2 240339Z 01004KT 08/07 A3008 RMK A01 T00830066  RH  089%=      5-min Rain = 0
KHA2 240340Z 01004KT 08/07 A3008 RMK A01 T00820065  RH  089%=      5-min Rain = 0
KHA2 240341Z 01005KT 08/07 A3008 RMK A01 T00820065  RH  089%=      5-min Rain = 0
KHA2 240342Z 02005KT 08/07 A3008 RMK A01 T00820065  RH  089%=      5-min Rain = 0
KHA2 240343Z 02005KT 08/06 A3008 RMK A01 T00810064  RH  089%=      5-min Rain = 0
KHA2 240344Z 03005KT 08/06 A3008 RMK A01 T00810063  RH  088%=      5-min Rain = 0
KHA2 240345Z 03004KT 08/06 A3008 RMK A01 T00810063  RH  089%=      5-min Rain = 0
KHA2 240346Z 03004KT 08/06 A3008 RMK A01 T00810064  RH  089%=      5-min Rain = 0
KHA2 240347Z 03004KT 08/07 A3008 RMK A01 T00810065  RH  090%=      5-min Rain = 0
KHA2 240348Z 03004KT 08/07 A3008 RMK A01 T00810065  RH  090%=      5-min Rain = 0
KHA2 240349Z 02004KT 08/07 A3008 RMK A01 T00810065  RH  089%=      5-min Rain = 0
KHA2 240350Z 02004KT 08/07 A3008 RMK A01 T00810065  RH  089%=      5-min Rain = 0
KHA2 240351Z 02004KT 08/06 A3008 RMK A01 T00810064  RH  089%=      5-min Rain = 0
KHA2 240352Z 02004KT 08/07 A3008 RMK A01 T00800065  RH  090%=      5-min Rain = 0
KHA2 240353Z 02004KT 08/07 A3008 RMK A01 T00800065  RH  090%=      5-min Rain = 0
KHA2 240354Z 02004KT 08/07 A3008 RMK A01 T00790065  RH  091%=      5-min Rain = 0
KHA2 240355Z 02004KT 08/06 A3008 RMK A01 T00780064  RH  091%=      5-min Rain = 0
KHA2 240356Z 03003KT 08/06 A3008 RMK A01 T00770064  RH  091%=      5-min Rain = 0
KHA2 240357Z 03003KT 08/06 A3008 RMK A01 T00780064  RH  091%=      5-min Rain = 0
KHA2 240358Z 03003KT 08/06 A3008 RMK A01 T00780064  RH  091%=      5-min Rain = 0
KHA2 240359Z 03003KT 08/06 A3008 RMK A01 T00780064  RH  091%=      5-min Rain = 0
KHA2 240400Z 02003KT 08/06 A3008 RMK A01 T00780064  RH  091%=      5-min Rain = 0
KHA2 240401Z 02003KT 08/06 A3008 RMK A01 T00780064  RH  091%=      5-min Rain = 0
KHA2 240402Z 02003KT 08/06 A3008 RMK A01 T00790064  RH  090%=      5-min Rain = 0
KHA2 240403Z 02003KT 08/06 A3008 RMK A01 T00790064  RH  090%=      5-min Rain = 0
KHA2 240404Z 01003KT 08/06 A3008 RMK A01 T00800064  RH  089%=      5-min Rain = 0
KHA2 240405Z 01004KT 08/06 A3008 RMK A01 T00800063  RH  089%=      5-min Rain = 0
KHA2 240406Z 01004KT 08/06 A3008 RMK A01 T00810063  RH  089%=      5-min Rain = 0
KHA2 240407Z 01005KT 08/06 A3008 RMK A01 T00810063  RH  089%=      5-min Rain = 0
KHA2 240408Z 01005KT 08/06 A3008 RMK A01 T00810063  RH  088%=      5-min Rain = 0
KHA2 240409Z 00006KT 08/06 A3008 RMK A01 T00810062  RH  088%=      5-min Rain = 0
KHA2 240410Z 00006KT 08/06 A3008 RMK A01 T00810063  RH  089%=      5-min Rain = 0
KHA2 240411Z 36006KT 08/06 A3008 RMK A01 T00810064  RH  089%=      5-min Rain = 0
KHA2 240412Z 36007KT 08/06 A3007 RMK A01 T00800064  RH  089%=      5-min Rain = 0
KHA2 240413Z 35007KT 08/06 A3007 RMK A01 T00800064  RH  090%=      5-min Rain = 0
KHA2 240414Z 35008KT 08/06 A3007 RMK A01 T00800064  RH  090%=      5-min Rain = 0
KHA2 240415Z 35009KT 08/06 A3006 RMK A01 T00800063  RH  090%=      5-min Rain = 0
KHA2 240416Z 35008KT 08/06 A3006 RMK A01 T00790063  RH  089%=      5-min Rain = 0
KHA2 240417Z 34009KT 08/06 A3006 RMK A01 T00790063  RH  090%=      5-min Rain = 0
KHA2 240418Z 34010KT 08/06 A3005 RMK A01 T00780062  RH  090%=      5-min Rain = 0
KHA2 240419Z 34010KT 08/06 A3005 RMK A01 T00780062  RH  090%=      5-min Rain = 0
KHA2 240420Z 34010KT 08/06 A3005 RMK A01 T00780062  RH  090%=      5-min Rain = 0
KHA2 240421Z 34009KT 08/06 A3005 RMK A01 T00770061  RH  089%=      5-min Rain = 0
KHA2 240422Z 35010KT 08/06 A3005 RMK A01 T00760060  RH  089%=      5-min Rain = 0
KHA2 240423Z 34009KT 08/06 A3005 RMK A01 T00750059  RH  089%=      5-min Rain = 0
KHA2 240424Z 35009KT 07/06 A3005 RMK A01 T00740059  RH  090%=      5-min Rain = 0
KHA2 240425Z 35009KT 07/06 A3005 RMK A01 T00740059  RH  090%=      5-min Rain = 0
KHA2 240426Z 35010KT 07/06 A3005 RMK A01 T00740059  RH  090%=      5-min Rain = 0
KHA2 240427Z 35009KT 08/06 A3005 RMK A01 T00750059  RH  090%=      5-min Rain = 0
KHA2 240428Z 35008KT 08/06 A3005 RMK A01 T00760059  RH  089%=      5-min Rain = 0
KHA2 240429Z 36008KT 08/06 A3005 RMK A01 T00760058  RH  088%=      5-min Rain = 0
KHA2 240430Z 36007KT 08/06 A3006 RMK A01 T00770058  RH  088%=      5-min Rain = 0
KHA2 240431Z 00007KT 08/06 A3006 RMK A01 T00770058  RH  088%=      5-min Rain = 0
KHA2 240432Z 36007KT 08/06 A3006 RMK A01 T00760058  RH  088%=      5-min Rain = 0
KHA2 240433Z 36006KT 08/06 A3006 RMK A01 T00760058  RH  089%=      5-min Rain = 0
KHA2 240434Z 36006KT 08/06 A3006 RMK A01 T00750058  RH  089%=      5-min Rain = 0
KHA2 240435Z 36007KT 08/06 A3006 RMK A01 T00750058  RH  089%=      5-min Rain = 0
KHA2 240436Z 35006KT 08/06 A3006 RMK A01 T00750058  RH  089%=      5-min Rain = 0
KHA2 240437Z 36006KT 08/06 A3006 RMK A01 T00750058  RH  089%=      5-min Rain = 0
KHA2 240438Z 36006KT 07/06 A3006 RMK A01 T00740057  RH  089%=      5-min Rain = 0
KHA2 240439Z 36005KT 07/06 A3007 RMK A01 T00740057  RH  089%=      5-min Rain = 0
KHA2 240440Z 00005KT 07/06 A3007 RMK A01 T00730056  RH  089%=      5-min Rain = 0
KHA2 240441Z 00005KT 07/06 A3007 RMK A01 T00730056  RH  089%=      5-min Rain = 0
KHA2 240442Z 01005KT 07/06 A3007 RMK A01 T00730056  RH  089%=      5-min Rain = 0
KHA2 240443Z 01004KT 07/06 A3007 RMK A01 T00730056  RH  089%=      5-min Rain = 0
KHA2 240444Z 02004KT 07/06 A3008 RMK A01 T00730056  RH  089%=      5-min Rain = 0
KHA2 240445Z 02004KT 07/06 A3008 RMK A01 T00730057  RH  090%=      5-min Rain = 0
KHA2 240446Z 02004KT 07/06 A3008 RMK A01 T00730057  RH  090%=      5-min Rain = 0
KHA2 240447Z 02004KT 07/06 A3008 RMK A01 T00730057  RH  090%=      5-min Rain = 0
KHA2 240448Z 02004KT 07/06 A3009 RMK A01 T00730056  RH  089%=      5-min Rain = 0
KHA2 240449Z 02005KT 07/06 A3009 RMK A01 T00730057  RH  089%=      5-min Rain = 0
KHA2 240450Z 02005KT 07/06 A3009 RMK A01 T00740056  RH  089%=      5-min Rain = 0
KHA2 240451Z 02004KT 07/06 A3009 RMK A01 T00730056  RH  089%=      5-min Rain = 0
KHA2 240452Z 03004KT 07/06 A3009 RMK A01 T00730056  RH  089%=      5-min Rain = 0
KHA2 240453Z 03004KT 07/06 A3009 RMK A01 T00730056  RH  088%=      5-min Rain = 0
KHA2 240454Z 02004KT 07/06 A3009 RMK A01 T00740056  RH  089%=      5-min Rain = 0
KHA2 240455Z 02005KT 07/06 A3009 RMK A01 T00730056  RH  089%=      5-min Rain = 0
KHA2 240456Z 02005KT 07/06 A3009 RMK A01 T00730056  RH  089%=      5-min Rain = 0
KHA2 240457Z 02006KT 07/05 A3009 RMK A01 T00720054  RH  089%=      5-min Rain = 0
KHA2 240458Z 02006KT 07/05 A3009 RMK A01 T00700053  RH  089%=      5-min Rain = 0
KHA2 240459Z 01006KT 07/05 A3009 RMK A01 T00690053  RH  090%=      5-min Rain = 0

Page generated in 0.138 seconds.